Time,TemperatureF,DewpointF,PressureIn,WindDirection,WindDirectionDegrees,WindSpeedMPH,WindSpeedGustMPH,Humidity,HourlyPrecipIn,Conditions,Clouds,dailyrainin,SoftwareType,DateUTC
2013-04-18 00:01:00,76.9,66.0,30.06,East,96,11.8,11.8,70,0.00,,,0.00,TxWx,2013-04-18 04:01:00,
2013-04-18 00:02:00,76.6,66.0,30.06,East,96,12.4,13.0,69,0.00,,,0.00,TxWx,2013-04-18 04:02:00,
2013-04-18 00:04:00,76.6,66.0,30.06,East,96,13.0,13.0,69,0.00,,,0.00,TxWx,2013-04-18 04:04:00,
2013-04-18 00:06:00,76.5,66.0,30.06,East,96,13.6,13.6,70,0.00,,,0.00,TxWx,2013-04-18 04:06:00,
2013-04-18 00:07:00,76.7,66.0,30.06,NE,51,9.9,11.8,70,0.00,,,0.00,TxWx,2013-04-18 04:07:00,
2013-04-18 00:08:00,76.7,66.0,30.06,East,96,11.1,12.4,70,0.00,,,0.00,TxWx,2013-04-18 04:08:00,
2013-04-18 00:09:00,76.6,66.0,30.06,East,96,12.4,12.4,70,0.00,,,0.00,TxWx,2013-04-18 04:09:00,
2013-04-18 00:10:00,76.5,66.0,30.06,East,96,13.0,13.0,69,0.00,,,0.00,TxWx,2013-04-18 04:10:00,
2013-04-18 00:12:00,76.9,67.0,30.06,East,96,9.9,11.8,71,0.00,,,0.00,TxWx,2013-04-18 04:12:00,
2013-04-18 00:13:00,76.5,66.0,30.06,East,96,12.4,14.9,70,0.00,,,0.00,TxWx,2013-04-18 04:13:00,
2013-04-18 00:14:00,77.0,67.0,30.06,East,96,11.8,12.4,71,0.00,,,0.00,TxWx,2013-04-18 04:14:00,
2013-04-18 00:15:00,76.7,67.0,30.06,East,96,11.1,11.8,71,0.00,,,0.00,TxWx,2013-04-18 04:15:00,
2013-04-18 00:17:00,76.6,67.0,30.06,East,96,11.8,11.8,71,0.00,,,0.00,TxWx,2013-04-18 04:17:00,
2013-04-18 00:20:00,76.5,65.0,30.05,East,96,11.8,11.8,70,0.00,,,0.00,TxWx,2013-04-18 04:20:00,
2013-04-18 00:21:00,76.6,67.0,30.06,East,96,11.1,11.8,71,0.00,,,0.00,TxWx,2013-04-18 04:21:00,
2013-04-18 00:22:00,76.8,67.0,30.06,ESE,118,11.8,12.4,72,0.00,,,0.00,TxWx,2013-04-18 04:22:00,
2013-04-18 00:26:00,76.9,67.0,30.06,ESE,118,11.1,11.8,72,0.00,,,0.00,TxWx,2013-04-18 04:26:00,
2013-04-18 00:27:00,76.5,66.0,30.05,East,96,12.4,12.4,71,0.00,,,0.00,TxWx,2013-04-18 04:27:00,
2013-04-18 00:28:00,76.7,67.0,30.05,East,96,13.0,13.6,71,0.00,,,0.00,TxWx,2013-04-18 04:28:00,
2013-04-18 00:32:00,76.7,67.0,30.05,ESE,118,13.6,13.6,72,0.00,,,0.00,TxWx,2013-04-18 04:32:00,
2013-04-18 00:33:00,76.8,67.0,30.05,East,96,12.4,12.4,72,0.00,,,0.00,TxWx,2013-04-18 04:33:00,
2013-04-18 00:36:00,76.7,67.0,30.05,NE,51,12.4,12.4,72,0.00,,,0.00,TxWx,2013-04-18 04:36:00,
2013-04-18 00:37:00,76.4,66.0,30.05,East,96,14.2,14.2,72,0.00,,,0.00,TxWx,2013-04-18 04:37:00,
2013-04-18 00:38:00,76.7,67.0,30.05,SE,141,12.4,12.4,72,0.00,,,0.00,TxWx,2013-04-18 04:38:00,
2013-04-18 00:40:00,76.6,67.0,30.05,ENE,73,8.7,11.8,72,0.00,,,0.00,TxWx,2013-04-18 04:40:00,
2013-04-18 00:42:00,76.6,67.0,30.05,ENE,73,7.4,9.3,73,0.00,,,0.00,TxWx,2013-04-18 04:42:00,
2013-04-18 00:43:00,76.8,68.0,30.05,ENE,73,10.5,10.5,73,0.00,,,0.00,TxWx,2013-04-18 04:43:00,
2013-04-18 00:44:00,76.8,68.0,30.05,ENE,73,8.0,8.0,73,0.00,,,0.00,TxWx,2013-04-18 04:44:00,
2013-04-18 00:46:00,76.5,66.0,30.05,ESE,118,11.1,13.0,73,0.00,,,0.00,TxWx,2013-04-18 04:46:00,
2013-04-18 00:49:00,76.8,67.0,30.05,ESE,118,13.0,13.0,71,0.00,,,0.00,TxWx,2013-04-18 04:49:00,
2013-04-18 00:51:00,76.7,67.0,30.04,East,96,13.0,13.0,71,0.00,,,0.00,TxWx,2013-04-18 04:51:00,
2013-04-18 00:52:00,76.7,67.0,30.05,East,96,15.5,15.5,71,0.00,,,0.00,TxWx,2013-04-18 04:52:00,
2013-04-18 00:54:00,76.7,67.0,30.04,East,96,11.1,11.8,72,0.00,,,0.00,TxWx,2013-04-18 04:54:00,
2013-04-18 00:55:00,76.7,67.0,30.05,ESE,118,11.8,11.8,72,0.00,,,0.00,TxWx,2013-04-18 04:55:00,
2013-04-18 00:57:00,76.7,67.0,30.04,East,96,10.5,11.8,73,0.00,,,0.00,TxWx,2013-04-18 04:57:00,
2013-04-18 00:59:00,76.9,68.0,30.04,East,96,11.1,11.1,73,0.00,,,0.00,TxWx,2013-04-18 04:59:00,
2013-04-18 01:02:00,76.5,67.0,30.05,East,96,13.0,13.6,73,0.00,,,0.00,TxWx,2013-04-18 05:02:00,
2013-04-18 01:04:00,77.0,68.0,30.05,ESE,118,8.7,9.3,74,0.00,,,0.00,TxWx,2013-04-18 05:04:00,
2013-04-18 01:05:00,76.9,68.0,30.05,East,96,7.4,7.4,74,0.00,,,0.00,TxWx,2013-04-18 05:05:00,
2013-04-18 01:06:00,76.7,68.0,30.04,East,96,11.1,11.8,74,0.00,,,0.00,TxWx,2013-04-18 05:06:00,
2013-04-18 01:07:00,76.8,68.0,30.05,ESE,118,9.9,10.5,74,0.00,,,0.00,TxWx,2013-04-18 05:07:00,
2013-04-18 01:10:00,76.7,68.0,30.05,ESE,118,11.8,11.8,74,0.00,,,0.00,TxWx,2013-04-18 05:10:00,
2013-04-18 01:11:00,76.7,68.0,30.04,SE,141,9.3,11.1,74,0.00,,,0.00,TxWx,2013-04-18 05:11:00,
2013-04-18 01:13:00,77.0,68.0,30.04,ESE,118,11.1,11.1,75,0.00,,,0.00,TxWx,2013-04-18 05:13:00,
2013-04-18 01:14:00,76.8,68.0,30.05,ESE,118,9.9,10.5,74,0.00,,,0.00,TxWx,2013-04-18 05:14:00,
2013-04-18 01:17:00,76.7,67.0,30.04,East,96,11.1,11.1,72,0.00,,,0.00,TxWx,2013-04-18 05:17:00,
2013-04-18 01:19:00,76.9,67.0,30.04,ESE,118,9.9,11.8,73,0.00,,,0.00,TxWx,2013-04-18 05:19:00,
2013-04-18 01:22:00,76.9,67.0,30.04,East,96,11.8,11.8,73,0.00,,,0.00,TxWx,2013-04-18 05:22:00,
2013-04-18 01:23:00,77.0,68.0,30.04,ESE,118,9.3,9.9,73,0.00,,,0.00,TxWx,2013-04-18 05:23:00,
2013-04-18 01:24:00,76.9,68.0,30.04,ESE,118,8.7,8.7,73,0.00,,,0.00,TxWx,2013-04-18 05:24:00,
2013-04-18 01:26:00,76.9,68.0,30.04,ESE,118,11.8,11.8,73,0.00,,,0.00,TxWx,2013-04-18 05:26:00,
2013-04-18 01:28:00,76.7,67.0,30.04,ESE,118,12.4,13.0,73,0.00,,,0.00,TxWx,2013-04-18 05:28:00,
2013-04-18 01:29:00,76.8,67.0,30.04,ESE,118,11.1,11.1,72,0.00,,,0.00,TxWx,2013-04-18 05:29:00,
2013-04-18 01:30:00,76.8,67.0,30.04,ESE,118,11.8,11.8,72,0.00,,,0.00,TxWx,2013-04-18 05:30:00,
2013-04-18 01:31:00,76.9,67.0,30.04,ESE,118,8.0,9.9,72,0.00,,,0.00,TxWx,2013-04-18 05:31:00,
2013-04-18 01:36:00,76.8,67.0,30.04,East,96,13.0,13.6,72,0.00,,,0.00,TxWx,2013-04-18 05:36:00,
2013-04-18 01:37:00,76.9,67.0,30.03,ESE,118,10.5,11.1,72,0.00,,,0.00,TxWx,2013-04-18 05:37:00,
2013-04-18 01:38:00,76.8,67.0,30.03,East,96,12.4,13.0,72,0.00,,,0.00,TxWx,2013-04-18 05:38:00,
2013-04-18 01:39:00,76.7,67.0,30.03,East,96,13.6,14.2,72,0.00,,,0.00,TxWx,2013-04-18 05:39:00,
2013-04-18 01:40:00,77.0,67.0,30.03,East,96,13.6,13.6,72,0.00,,,0.00,TxWx,2013-04-18 05:40:00,
2013-04-18 01:41:00,76.6,67.0,30.03,East,96,14.9,14.9,71,0.00,,,0.00,TxWx,2013-04-18 05:41:00,
2013-04-18 01:42:00,77.0,67.0,30.03,East,96,10.5,11.1,72,0.00,,,0.00,TxWx,2013-04-18 05:42:00,
2013-04-18 01:43:00,76.8,67.0,30.03,East,96,14.2,14.9,72,0.00,,,0.00,TxWx,2013-04-18 05:43:00,
2013-04-18 01:45:00,77.0,67.0,30.03,East,96,13.6,14.2,73,0.00,,,0.00,TxWx,2013-04-18 05:45:00,
2013-04-18 01:46:00,76.7,67.0,30.03,ESE,118,16.1,16.1,73,0.00,,,0.00,TxWx,2013-04-18 05:46:00,
2013-04-18 01:48:00,76.9,68.0,30.03,East,96,15.5,15.5,73,0.00,,,0.00,TxWx,2013-04-18 05:48:00,
2013-04-18 01:50:00,76.9,67.0,30.03,ESE,118,13.0,13.0,73,0.00,,,0.00,TxWx,2013-04-18 05:50:00,
2013-04-18 01:51:00,77.0,67.0,30.02,East,96,13.0,13.0,72,0.00,,,0.00,TxWx,2013-04-18 05:51:00,
2013-04-18 01:52:00,77.0,67.0,30.02,ESE,118,12.4,13.0,73,0.00,,,0.00,TxWx,2013-04-18 05:52:00,
2013-04-18 01:53:00,77.0,67.0,30.02,ESE,118,13.6,15.5,73,0.00,,,0.00,TxWx,2013-04-18 05:53:00,
2013-04-18 01:56:00,76.8,67.0,30.02,East,96,11.1,11.1,72,0.00,,,0.00,TxWx,2013-04-18 05:56:00,
2013-04-18 01:58:00,76.8,67.0,30.02,ESE,118,13.6,14.2,72,0.00,,,0.00,TxWx,2013-04-18 05:58:00,
2013-04-18 02:01:00,77.0,67.0,30.02,ESE,118,13.6,14.2,72,0.00,,,0.00,TxWx,2013-04-18 06:01:00,
2013-04-18 02:02:00,76.9,67.0,30.02,ESE,118,11.8,11.8,71,0.00,,,0.00,TxWx,2013-04-18 06:02:00,
2013-04-18 02:06:00,76.9,67.0,30.02,East,96,9.3,9.3,71,0.00,,,0.00,TxWx,2013-04-18 06:06:00,
2013-04-18 02:07:00,77.0,67.0,30.02,ESE,118,13.0,13.0,72,0.00,,,0.00,TxWx,2013-04-18 06:07:00,
2013-04-18 02:10:00,76.9,67.0,30.02,East,96,13.6,13.6,72,0.00,,,0.00,TxWx,2013-04-18 06:10:00,
2013-04-18 02:11:00,77.0,67.0,30.02,East,96,10.5,11.1,72,0.00,,,0.00,TxWx,2013-04-18 06:11:00,
2013-04-18 02:12:00,77.0,67.0,30.02,East,96,10.5,11.1,72,0.00,,,0.00,TxWx,2013-04-18 06:12:00,
2013-04-18 02:13:00,77.1,67.0,30.02,ESE,118,12.4,12.4,72,0.00,,,0.00,TxWx,2013-04-18 06:13:00,
2013-04-18 02:14:00,77.1,67.0,30.02,East,96,11.1,11.1,72,0.00,,,0.00,TxWx,2013-04-18 06:14:00,
2013-04-18 02:17:00,77.0,67.0,30.02,ESE,118,11.8,12.4,73,0.00,,,0.00,TxWx,2013-04-18 06:17:00,
2013-04-18 02:18:00,77.2,68.0,30.01,East,96,10.5,10.5,73,0.00,,,0.00,TxWx,2013-04-18 06:18:00,
2013-04-18 02:19:00,76.9,67.0,30.01,SE,141,10.5,13.6,73,0.00,,,0.00,TxWx,2013-04-18 06:19:00,
2013-04-18 02:22:00,76.9,67.0,30.01,ESE,118,13.6,13.6,72,0.00,,,0.00,TxWx,2013-04-18 06:22:00,
2013-04-18 02:23:00,77.3,67.0,30.01,East,96,9.9,13.0,73,0.00,,,0.00,TxWx,2013-04-18 06:23:00,
2013-04-18 02:24:00,77.0,67.0,30.01,East,96,11.8,12.4,73,0.00,,,0.00,TxWx,2013-04-18 06:24:00,
2013-04-18 02:25:00,77.1,68.0,30.01,East,96,11.8,14.2,74,0.00,,,0.00,TxWx,2013-04-18 06:25:00,
2013-04-18 02:28:00,77.0,67.0,30.01,East,96,13.0,13.0,73,0.00,,,0.00,TxWx,2013-04-18 06:28:00,
2013-04-18 02:30:00,77.0,67.0,30.01,East,96,14.9,16.1,73,0.00,,,0.00,TxWx,2013-04-18 06:30:00,
2013-04-18 02:31:00,77.1,67.0,30.01,SE,141,11.1,11.8,73,0.00,,,0.00,TxWx,2013-04-18 06:31:00,
2013-04-18 02:32:00,77.0,67.0,30.01,East,96,14.2,14.9,73,0.00,,,0.00,TxWx,2013-04-18 06:32:00,
2013-04-18 02:36:00,77.3,67.0,30.01,East,96,13.6,13.6,71,0.00,,,0.00,TxWx,2013-04-18 06:36:00,
2013-04-18 02:37:00,77.0,67.0,30.01,ESE,118,14.9,14.9,71,0.00,,,0.00,TxWx,2013-04-18 06:37:00,
2013-04-18 02:38:00,77.1,67.0,30.01,East,96,13.6,14.2,71,0.00,,,0.00,TxWx,2013-04-18 06:38:00,
2013-04-18 02:40:00,77.3,67.0,30.01,ESE,118,9.9,9.9,72,0.00,,,0.00,TxWx,2013-04-18 06:40:00,
2013-04-18 02:42:00,77.1,67.0,30.01,ESE,118,9.3,10.5,71,0.00,,,0.00,TxWx,2013-04-18 06:42:00,
2013-04-18 02:43:00,77.1,67.0,30.01,SE,141,12.4,13.0,71,0.00,,,0.00,TxWx,2013-04-18 06:43:00,
2013-04-18 02:44:00,77.0,67.0,30.01,ESE,118,11.8,11.8,71,0.00,,,0.00,TxWx,2013-04-18 06:44:00,
2013-04-18 02:46:00,77.4,67.0,30.01,SE,141,9.3,9.9,72,0.00,,,0.00,TxWx,2013-04-18 06:46:00,
2013-04-18 02:47:00,77.1,67.0,30.01,East,96,11.1,12.4,72,0.00,,,0.00,TxWx,2013-04-18 06:47:00,
2013-04-18 02:48:00,77.0,66.0,30.01,SE,141,9.9,10.5,70,0.00,,,0.00,TxWx,2013-04-18 06:48:00,
2013-04-18 02:49:00,77.1,66.0,30.01,ESE,118,9.9,9.9,70,0.00,,,0.00,TxWx,2013-04-18 06:49:00,
2013-04-18 02:51:00,77.1,67.0,30.01,SE,141,9.9,10.5,71,0.00,,,0.00,TxWx,2013-04-18 06:51:00,
2013-04-18 02:52:00,77.3,67.0,30.01,ESE,118,9.3,9.9,71,0.00,,,0.00,TxWx,2013-04-18 06:52:00,
2013-04-18 02:53:00,77.1,67.0,30.01,East,96,9.3,9.3,71,0.00,,,0.00,TxWx,2013-04-18 06:53:00,
2013-04-18 02:54:00,77.0,67.0,30.00,ESE,118,11.8,11.8,71,0.00,,,0.00,TxWx,2013-04-18 06:54:00,
2013-04-18 02:55:00,77.1,67.0,30.01,East,96,11.1,12.4,71,0.00,,,0.00,TxWx,2013-04-18 06:55:00,
2013-04-18 02:57:00,77.0,67.0,30.00,SE,141,10.5,10.5,71,0.00,,,0.00,TxWx,2013-04-18 06:57:00,
2013-04-18 02:59:00,77.3,67.0,30.00,ESE,118,10.5,11.1,72,0.00,,,0.00,TxWx,2013-04-18 06:59:00,
2013-04-18 03:00:00,77.1,67.0,30.00,East,96,10.5,10.5,72,0.00,,,0.00,TxWx,2013-04-18 07:00:00,
2013-04-18 03:01:00,77.2,67.0,30.00,ESE,118,10.5,10.5,72,0.00,,,0.00,TxWx,2013-04-18 07:01:00,
2013-04-18 03:02:00,76.9,67.0,30.00,East,96,15.5,15.5,71,0.00,,,0.00,TxWx,2013-04-18 07:02:00,
2013-04-18 03:05:00,77.0,67.0,30.00,East,96,9.9,9.9,71,0.00,,,0.00,TxWx,2013-04-18 07:05:00,
2013-04-18 03:06:00,77.0,67.0,30.00,SE,141,10.5,11.1,71,0.00,,,0.00,TxWx,2013-04-18 07:06:00,
2013-04-18 03:08:00,77.0,67.0,30.00,SE,141,9.3,9.9,71,0.00,,,0.00,TxWx,2013-04-18 07:08:00,
2013-04-18 03:11:00,77.3,67.0,30.00,SE,141,8.7,10.5,72,0.00,,,0.00,TxWx,2013-04-18 07:11:00,
2013-04-18 03:12:00,77.2,67.0,30.00,East,96,9.3,9.9,72,0.00,,,0.00,TxWx,2013-04-18 07:12:00,
2013-04-18 03:14:00,77.1,67.0,30.00,ESE,118,13.0,13.0,73,0.00,,,0.00,TxWx,2013-04-18 07:14:00,
2013-04-18 03:17:00,77.0,67.0,30.00,ESE,118,8.7,8.7,72,0.00,,,0.00,TxWx,2013-04-18 07:17:00,
2013-04-18 03:18:00,76.8,67.0,30.00,SE,141,8.7,9.3,72,0.00,,,0.00,TxWx,2013-04-18 07:18:00,
2013-04-18 03:19:00,77.0,67.0,30.00,SE,141,9.9,10.5,72,0.00,,,0.00,TxWx,2013-04-18 07:19:00,
2013-04-18 03:20:00,76.9,67.0,30.00,SE,141,11.8,11.8,72,0.00,,,0.00,TxWx,2013-04-18 07:20:00,
2013-04-18 03:23:00,77.3,67.0,30.00,ESE,118,10.5,10.5,72,0.00,,,0.00,TxWx,2013-04-18 07:23:00,
2013-04-18 03:24:00,76.9,67.0,30.00,East,96,13.0,13.0,72,0.00,,,0.00,TxWx,2013-04-18 07:24:00,
2013-04-18 03:25:00,76.9,67.0,30.00,SE,141,9.3,9.9,71,0.00,,,0.00,TxWx,2013-04-18 07:25:00,
2013-04-18 03:27:00,77.0,67.0,30.00,ESE,118,8.7,10.5,72,0.00,,,0.00,TxWx,2013-04-18 07:27:00,
2013-04-18 03:29:00,77.0,67.0,30.00,ESE,118,8.0,8.7,72,0.00,,,0.00,TxWx,2013-04-18 07:29:00,
2013-04-18 03:30:00,76.9,67.0,30.00,East,96,10.5,10.5,72,0.00,,,0.00,TxWx,2013-04-18 07:30:00,
2013-04-18 03:31:00,76.9,67.0,30.00,ESE,118,9.9,9.9,72,0.00,,,0.00,TxWx,2013-04-18 07:31:00,
2013-04-18 03:32:00,77.0,67.0,30.00,ESE,118,8.7,10.5,72,0.00,,,0.00,TxWx,2013-04-18 07:32:00,
2013-04-18 03:35:00,76.8,67.0,30.00,ESE,118,9.3,9.3,72,0.00,,,0.00,TxWx,2013-04-18 07:35:00,
2013-04-18 03:36:00,76.9,67.0,30.00,ESE,118,11.1,11.1,72,0.00,,,0.00,TxWx,2013-04-18 07:36:00,
2013-04-18 03:38:00,76.9,67.0,30.00,ESE,118,13.6,13.6,72,0.00,,,0.00,TxWx,2013-04-18 07:38:00,
2013-04-18 03:40:00,76.9,67.0,30.00,ESE,118,9.3,9.9,73,0.00,,,0.00,TxWx,2013-04-18 07:40:00,
2013-04-18 03:41:00,76.8,67.0,30.00,ESE,118,10.5,11.8,72,0.00,,,0.00,TxWx,2013-04-18 07:41:00,
2013-04-18 03:42:00,76.9,67.0,30.00,ESE,118,9.9,11.8,72,0.00,,,0.00,TxWx,2013-04-18 07:42:00,
2013-04-18 03:43:00,76.9,67.0,29.99,ESE,118,11.1,11.1,72,0.00,,,0.00,TxWx,2013-04-18 07:43:00,
2013-04-18 03:46:00,76.9,67.0,29.99,ESE,118,9.9,11.1,73,0.00,,,0.00,TxWx,2013-04-18 07:46:00,
2013-04-18 03:47:00,76.9,67.0,29.99,ESE,118,13.0,13.0,72,0.00,,,0.00,TxWx,2013-04-18 07:47:00,
2013-04-18 03:48:00,76.9,67.0,29.99,SE,141,11.1,11.8,72,0.00,,,0.00,TxWx,2013-04-18 07:48:00,
2013-04-18 03:49:00,76.9,67.0,29.99,SE,141,10.5,10.5,72,0.00,,,0.00,TxWx,2013-04-18 07:49:00,
2013-04-18 03:52:00,77.0,67.0,29.99,ESE,118,8.0,8.7,72,0.00,,,0.00,TxWx,2013-04-18 07:52:00,
2013-04-18 03:53:00,76.9,67.0,29.99,SE,141,8.7,9.9,72,0.00,,,0.00,TxWx,2013-04-18 07:53:00,
2013-04-18 03:54:00,77.0,67.0,29.99,ESE,118,9.3,9.3,73,0.00,,,0.00,TxWx,2013-04-18 07:54:00,
2013-04-18 03:55:00,76.8,67.0,30.00,East,96,11.1,11.8,72,0.00,,,0.00,TxWx,2013-04-18 07:55:00,
2013-04-18 03:56:00,77.1,67.0,29.99,SE,141,8.7,9.3,73,0.00,,,0.00,TxWx,2013-04-18 07:56:00,
2013-04-18 03:58:00,77.0,67.0,29.99,SE,141,9.9,9.9,72,0.00,,,0.00,TxWx,2013-04-18 07:58:00,
2013-04-18 03:59:00,76.8,67.0,29.99,East,96,10.5,10.5,72,0.00,,,0.00,TxWx,2013-04-18 07:59:00,
2013-04-18 04:01:00,77.1,67.0,29.99,East,96,11.1,11.1,72,0.00,,,0.00,TxWx,2013-04-18 08:01:00,
2013-04-18 04:03:00,76.9,67.0,29.99,ESE,118,10.5,10.5,72,0.00,,,0.00,TxWx,2013-04-18 08:03:00,
2013-04-18 04:04:00,77.0,68.0,29.99,East,96,11.1,11.1,73,0.00,,,0.00,TxWx,2013-04-18 08:04:00,
2013-04-18 04:05:00,77.0,68.0,29.99,East,96,10.5,11.1,73,0.00,,,0.00,TxWx,2013-04-18 08:05:00,
2013-04-18 04:06:00,76.7,67.0,29.99,ESE,118,11.1,11.8,72,0.00,,,0.00,TxWx,2013-04-18 08:06:00,
2013-04-18 04:08:00,76.7,67.0,29.99,ESE,118,13.0,13.0,72,0.00,,,0.00,TxWx,2013-04-18 08:08:00,
2013-04-18 04:09:00,77.0,67.0,29.99,SE,141,13.0,13.0,72,0.00,,,0.00,TxWx,2013-04-18 08:09:00,
2013-04-18 04:11:00,76.9,67.0,29.99,ESE,118,9.9,11.1,72,0.00,,,0.00,TxWx,2013-04-18 08:11:00,
2013-04-18 04:13:00,76.9,67.0,29.99,East,96,11.8,11.8,72,0.00,,,0.00,TxWx,2013-04-18 08:13:00,
2013-04-18 04:14:00,76.8,67.0,29.99,East,96,10.5,11.8,72,0.00,,,0.00,TxWx,2013-04-18 08:14:00,
2013-04-18 04:16:00,76.8,67.0,29.99,ESE,118,11.1,12.4,72,0.00,,,0.00,TxWx,2013-04-18 08:16:00,
2013-04-18 04:17:00,77.0,67.0,29.99,SE,141,11.1,11.1,73,0.00,,,0.00,TxWx,2013-04-18 08:17:00,
2013-04-18 04:18:00,77.0,67.0,29.99,East,96,9.9,10.5,73,0.00,,,0.00,TxWx,2013-04-18 08:18:00,
2013-04-18 04:19:00,76.7,67.0,29.99,East,96,11.8,12.4,73,0.00,,,0.00,TxWx,2013-04-18 08:19:00,
2013-04-18 04:21:00,77.0,67.0,29.99,ESE,118,11.1,11.8,72,0.00,,,0.00,TxWx,2013-04-18 08:21:00,
2013-04-18 04:22:00,76.9,67.0,29.99,ESE,118,12.4,12.4,72,0.00,,,0.00,TxWx,2013-04-18 08:22:00,
2013-04-18 04:24:00,76.9,67.0,29.99,East,96,15.5,15.5,72,0.00,,,0.00,TxWx,2013-04-18 08:24:00,
2013-04-18 04:25:00,76.8,67.0,29.99,ESE,118,12.4,12.4,72,0.00,,,0.00,TxWx,2013-04-18 08:25:00,
2013-04-18 04:26:00,77.0,67.0,29.99,ESE,118,9.3,11.1,72,0.00,,,0.00,TxWx,2013-04-18 08:26:00,
2013-04-18 04:27:00,77.1,67.0,29.99,SE,141,9.3,9.3,73,0.00,,,0.00,TxWx,2013-04-18 08:27:00,
2013-04-18 04:28:00,77.1,68.0,30.00,SE,141,6.8,8.0,73,0.00,,,0.00,TxWx,2013-04-18 08:28:00,
2013-04-18 04:29:00,77.1,68.0,30.00,ESE,118,9.9,10.5,73,0.00,,,0.00,TxWx,2013-04-18 08:29:00,
2013-04-18 04:30:00,76.7,67.0,29.99,SE,141,12.4,12.4,72,0.00,,,0.00,TxWx,2013-04-18 08:30:00,
2013-04-18 04:32:00,76.7,67.0,29.99,ESE,118,9.9,10.5,72,0.00,,,0.00,TxWx,2013-04-18 08:32:00,
2013-04-18 04:33:00,77.0,67.0,29.99,SE,141,9.9,10.5,73,0.00,,,0.00,TxWx,2013-04-18 08:33:00,
2013-04-18 04:35:00,76.9,67.0,29.99,ESE,118,10.5,10.5,73,0.00,,,0.00,TxWx,2013-04-18 08:35:00,
2013-04-18 04:38:00,76.8,67.0,29.99,ESE,118,10.5,10.5,72,0.00,,,0.00,TxWx,2013-04-18 08:38:00,
2013-04-18 04:40:00,77.0,67.0,29.99,SE,141,11.8,11.8,72,0.00,,,0.00,TxWx,2013-04-18 08:40:00,
2013-04-18 04:41:00,76.8,67.0,29.99,East,96,9.3,9.3,72,0.00,,,0.00,TxWx,2013-04-18 08:41:00,
2013-04-18 04:42:00,77.1,67.0,29.99,ESE,118,8.7,9.3,73,0.00,,,0.00,TxWx,2013-04-18 08:42:00,
2013-04-18 04:44:00,76.8,67.0,29.99,East,96,9.3,10.5,72,0.00,,,0.00,TxWx,2013-04-18 08:44:00,
2013-04-18 04:46:00,77.1,68.0,29.99,SE,141,10.5,11.1,73,0.00,,,0.00,TxWx,2013-04-18 08:46:00,
2013-04-18 04:47:00,76.8,67.0,29.99,ESE,118,11.8,12.4,73,0.00,,,0.00,TxWx,2013-04-18 08:47:00,
2013-04-18 04:48:00,76.9,68.0,29.99,ESE,118,11.8,11.8,73,0.00,,,0.00,TxWx,2013-04-18 08:48:00,
2013-04-18 04:49:00,77.1,68.0,29.99,ESE,118,10.5,11.1,73,0.00,,,0.00,TxWx,2013-04-18 08:49:00,
2013-04-18 04:51:00,76.8,68.0,29.99,ESE,118,10.5,11.1,73,0.00,,,0.00,TxWx,2013-04-18 08:51:00,
2013-04-18 04:52:00,76.9,68.0,29.99,ESE,118,10.5,12.4,74,0.00,,,0.00,TxWx,2013-04-18 08:52:00,
2013-04-18 04:55:00,77.0,68.0,29.99,SE,141,11.8,11.8,73,0.00,,,0.00,TxWx,2013-04-18 08:55:00,
2013-04-18 04:56:00,76.9,68.0,29.99,ESE,118,9.9,9.9,73,0.00,,,0.00,TxWx,2013-04-18 08:56:00,
2013-04-18 04:57:00,77.1,68.0,29.99,SE,141,10.5,11.8,74,0.00,,,0.00,TxWx,2013-04-18 08:57:00,
2013-04-18 05:00:00,77.0,68.0,29.99,ESE,118,8.7,9.3,73,0.00,,,0.00,TxWx,2013-04-18 09:00:00,
2013-04-18 05:01:00,77.1,68.0,29.99,ESE,118,9.3,9.3,74,0.00,,,0.00,TxWx,2013-04-18 09:01:00,
2013-04-18 05:02:00,77.1,68.0,29.99,ESE,118,8.7,9.9,74,0.00,,,0.00,TxWx,2013-04-18 09:02:00,
2013-04-18 05:03:00,77.1,68.0,29.99,ESE,118,9.3,9.3,74,0.00,,,0.00,TxWx,2013-04-18 09:03:00,
2013-04-18 05:06:00,76.8,68.0,30.00,ESE,118,9.9,10.5,74,0.00,,,0.00,TxWx,2013-04-18 09:06:00,
2013-04-18 05:08:00,76.9,68.0,29.99,SE,141,12.4,12.4,75,0.00,,,0.00,TxWx,2013-04-18 09:08:00,
2013-04-18 05:09:00,76.8,68.0,30.00,SE,141,9.9,9.9,74,0.00,,,0.00,TxWx,2013-04-18 09:09:00,
2013-04-18 05:11:00,76.7,68.0,30.00,East,96,9.3,9.9,73,0.00,,,0.00,TxWx,2013-04-18 09:11:00,
2013-04-18 05:13:00,76.8,68.0,30.00,East,96,9.3,9.3,73,0.00,,,0.00,TxWx,2013-04-18 09:13:00,
2013-04-18 05:14:00,77.1,68.0,30.00,ESE,118,9.3,9.3,74,0.00,,,0.00,TxWx,2013-04-18 09:14:00,
2013-04-18 05:15:00,77.0,68.0,30.00,ESE,118,9.9,10.5,74,0.00,,,0.00,TxWx,2013-04-18 09:15:00,
2013-04-18 05:18:00,76.9,68.0,30.00,East,96,9.9,9.9,75,0.00,,,0.00,TxWx,2013-04-18 09:18:00,
2013-04-18 05:19:00,77.1,68.0,30.00,ESE,118,11.1,11.1,75,0.00,,,0.00,TxWx,2013-04-18 09:19:00,
2013-04-18 05:20:00,76.8,68.0,30.00,SE,141,12.4,12.4,75,0.00,,,0.00,TxWx,2013-04-18 09:20:00,
2013-04-18 05:21:00,76.9,68.0,30.00,ESE,118,8.7,8.7,75,0.00,,,0.00,TxWx,2013-04-18 09:21:00,
2013-04-18 05:25:00,77.0,69.0,30.00,ESE,118,7.4,8.7,76,0.00,,,0.00,TxWx,2013-04-18 09:25:00,
2013-04-18 05:26:00,76.7,68.0,30.00,East,96,10.5,10.5,75,0.00,,,0.00,TxWx,2013-04-18 09:26:00,
2013-04-18 05:27:00,76.9,68.0,30.00,SE,141,9.3,11.1,75,0.00,,,0.00,TxWx,2013-04-18 09:27:00,
2013-04-18 05:31:00,76.9,69.0,30.00,ESE,118,6.8,8.7,76,0.00,,,0.00,TxWx,2013-04-18 09:31:00,
2013-04-18 05:32:00,76.9,69.0,30.00,East,96,8.7,9.3,76,0.00,,,0.00,TxWx,2013-04-18 09:32:00,
2013-04-18 05:37:00,76.9,69.0,30.00,East,96,8.7,9.3,76,0.00,,,0.00,TxWx,2013-04-18 09:37:00,
2013-04-18 05:38:00,76.9,68.0,30.00,ESE,118,8.7,8.7,75,0.00,,,0.00,TxWx,2013-04-18 09:38:00,
2013-04-18 05:41:00,76.7,68.0,30.00,ESE,118,9.9,9.9,75,0.00,,,0.00,TxWx,2013-04-18 09:41:00,
2013-04-18 05:42:00,76.8,68.0,30.00,East,96,8.7,8.7,74,0.00,,,0.00,TxWx,2013-04-18 09:42:00,
2013-04-18 05:43:00,77.0,68.0,30.00,SE,141,8.7,9.3,75,0.00,,,0.00,TxWx,2013-04-18 09:43:00,
2013-04-18 05:44:00,77.1,68.0,30.00,SE,141,11.1,11.1,75,0.00,,,0.00,TxWx,2013-04-18 09:44:00,
2013-04-18 05:46:00,76.8,68.0,30.00,SE,141,8.7,8.7,75,0.00,,,0.00,TxWx,2013-04-18 09:46:00,
2013-04-18 05:47:00,77.0,68.0,30.00,East,96,7.4,7.4,74,0.00,,,0.00,TxWx,2013-04-18 09:47:00,
2013-04-18 05:49:00,76.9,68.0,30.00,SE,141,9.3,9.3,74,0.00,,,0.00,TxWx,2013-04-18 09:49:00,
2013-04-18 05:50:00,77.2,68.0,30.01,SE,141,7.4,7.4,75,0.00,,,0.00,TxWx,2013-04-18 09:50:00,
2013-04-18 05:51:00,77.0,68.0,30.00,ESE,118,9.9,9.9,74,0.00,,,0.00,TxWx,2013-04-18 09:51:00,
2013-04-18 05:52:00,77.3,68.0,30.00,SE,141,8.7,9.3,75,0.00,,,0.00,TxWx,2013-04-18 09:52:00,
2013-04-18 05:56:00,77.3,68.0,30.00,ESE,118,9.3,9.3,75,0.00,,,0.00,TxWx,2013-04-18 09:56:00,
2013-04-18 05:57:00,77.0,68.0,30.00,ESE,118,8.0,9.3,75,0.00,,,0.00,TxWx,2013-04-18 09:57:00,
2013-04-18 05:59:00,76.8,68.0,30.00,SE,141,9.9,9.9,75,0.00,,,0.00,TxWx,2013-04-18 09:59:00,
2013-04-18 06:02:00,77.4,68.0,30.00,East,96,6.8,6.8,75,0.00,,,0.00,TxWx,2013-04-18 10:02:00,
2013-04-18 06:03:00,77.0,68.0,30.01,ESE,118,6.2,8.0,75,0.00,,,0.00,TxWx,2013-04-18 10:03:00,
2013-04-18 06:04:00,77.0,68.0,30.01,SE,141,9.3,9.3,75,0.00,,,0.00,TxWx,2013-04-18 10:04:00,
2013-04-18 06:07:00,77.2,69.0,30.01,SE,141,7.4,7.4,76,0.00,,,0.00,TxWx,2013-04-18 10:07:00,
2013-04-18 06:09:00,77.0,68.0,30.01,SE,141,9.3,9.9,75,0.00,,,0.00,TxWx,2013-04-18 10:09:00,
2013-04-18 06:10:00,76.8,68.0,30.01,ESE,118,8.0,8.7,75,0.00,,,0.00,TxWx,2013-04-18 10:10:00,
2013-04-18 06:11:00,76.8,68.0,30.01,East,96,6.8,6.8,75,0.00,,,0.00,TxWx,2013-04-18 10:11:00,
2013-04-18 06:12:00,76.8,68.0,30.01,ESE,118,9.3,9.9,75,0.00,,,0.00,TxWx,2013-04-18 10:12:00,
2013-04-18 06:15:00,77.0,68.0,30.02,East,96,11.1,11.1,75,0.00,,,0.00,TxWx,2013-04-18 10:15:00,
2013-04-18 06:16:00,77.1,69.0,30.01,ESE,118,9.3,9.3,76,0.00,,,0.00,TxWx,2013-04-18 10:16:00,
2013-04-18 06:17:00,76.8,69.0,30.02,ESE,118,11.1,11.1,76,0.00,,,0.00,TxWx,2013-04-18 10:17:00,
2013-04-18 06:19:00,77.0,69.0,30.02,ESE,118,9.9,9.9,76,0.00,,,0.00,TxWx,2013-04-18 10:19:00,
2013-04-18 06:21:00,77.1,69.0,30.02,East,96,8.0,8.0,76,0.00,,,0.00,TxWx,2013-04-18 10:21:00,
2013-04-18 06:23:00,77.0,69.0,30.02,SE,141,8.0,8.0,76,0.00,,,0.00,TxWx,2013-04-18 10:23:00,
2013-04-18 06:24:00,76.9,69.0,30.02,ESE,118,7.4,8.0,76,0.00,,,0.00,TxWx,2013-04-18 10:24:00,
2013-04-18 06:25:00,76.9,69.0,30.02,SE,141,7.4,7.4,76,0.00,,,0.00,TxWx,2013-04-18 10:25:00,
2013-04-18 06:27:00,77.2,69.0,30.02,SE,141,7.4,8.0,76,0.00,,,0.00,TxWx,2013-04-18 10:27:00,
2013-04-18 06:29:00,76.9,69.0,30.02,ESE,118,7.4,9.9,76,0.00,,,0.00,TxWx,2013-04-18 10:29:00,
2013-04-18 06:30:00,77.1,69.0,30.02,SE,141,9.9,11.1,76,0.00,,,0.00,TxWx,2013-04-18 10:30:00,
2013-04-18 06:31:00,77.0,69.0,30.02,ESE,118,10.5,10.5,76,0.00,,,0.00,TxWx,2013-04-18 10:31:00,
2013-04-18 06:32:00,76.9,69.0,30.02,East,96,8.0,8.0,77,0.00,,,0.00,TxWx,2013-04-18 10:32:00,
2013-04-18 06:34:00,76.9,69.0,30.02,ESE,118,7.4,8.0,76,0.00,,,0.00,TxWx,2013-04-18 10:34:00,
2013-04-18 06:35:00,76.9,69.0,30.02,SE,141,7.4,7.4,76,0.00,,,0.00,TxWx,2013-04-18 10:35:00,
2013-04-18 06:36:00,76.9,69.0,30.02,ESE,118,9.9,9.9,76,0.00,,,0.00,TxWx,2013-04-18 10:36:00,
2013-04-18 06:37:00,77.2,69.0,30.02,ESE,118,8.0,8.7,77,0.00,,,0.00,TxWx,2013-04-18 10:37:00,
2013-04-18 06:38:00,77.1,69.0,30.02,ESE,118,9.3,9.3,77,0.00,,,0.00,TxWx,2013-04-18 10:38:00,
2013-04-18 06:40:00,77.0,69.0,30.02,East,96,8.0,9.9,77,0.00,,,0.00,TxWx,2013-04-18 10:40:00,
2013-04-18 06:43:00,77.2,69.0,30.02,ESE,118,8.7,9.3,77,0.00,,,0.00,TxWx,2013-04-18 10:43:00,
2013-04-18 06:44:00,77.0,69.0,30.02,ESE,118,11.1,11.1,77,0.00,,,0.00,TxWx,2013-04-18 10:44:00,
2013-04-18 06:45:00,77.1,69.0,30.02,East,96,9.3,9.9,77,0.00,,,0.00,TxWx,2013-04-18 10:45:00,
2013-04-18 06:47:00,77.2,69.0,30.02,ESE,118,8.0,8.0,77,0.00,,,0.00,TxWx,2013-04-18 10:47:00,
2013-04-18 06:49:00,77.0,69.0,30.02,SE,141,9.9,10.5,77,0.00,,,0.00,TxWx,2013-04-18 10:49:00,
2013-04-18 06:50:00,76.8,69.0,30.02,SE,141,6.8,8.7,77,0.00,,,0.00,TxWx,2013-04-18 10:50:00,
2013-04-18 06:53:00,77.0,69.0,30.02,ESE,118,8.7,9.3,77,0.00,,,0.00,TxWx,2013-04-18 10:53:00,
2013-04-18 06:54:00,76.9,69.0,30.02,ESE,118,9.3,10.5,77,0.00,,,0.00,TxWx,2013-04-18 10:54:00,
2013-04-18 06:55:00,76.8,69.0,30.02,SE,141,8.7,8.7,76,0.00,,,0.00,TxWx,2013-04-18 10:55:00,
2013-04-18 06:56:00,77.0,69.0,30.02,SE,141,9.9,9.9,77,0.00,,,0.00,TxWx,2013-04-18 10:56:00,
2013-04-18 07:00:00,77.0,69.0,30.03,East,96,9.9,10.5,77,0.00,,,0.00,TxWx,2013-04-18 11:00:00,
2013-04-18 07:01:00,77.0,69.0,30.03,SE,141,9.9,9.9,77,0.00,,,0.00,TxWx,2013-04-18 11:01:00,
2013-04-18 07:02:00,76.9,69.0,30.03,ESE,118,8.7,9.3,77,0.00,,,0.00,TxWx,2013-04-18 11:02:00,
2013-04-18 07:07:00,76.8,69.0,30.03,ESE,118,9.9,9.9,77,0.00,,,0.00,TxWx,2013-04-18 11:07:00,
2013-04-18 07:08:00,77.3,69.0,30.03,East,96,8.0,9.9,77,0.00,,,0.00,TxWx,2013-04-18 11:08:00,
2013-04-18 07:09:00,77.1,69.0,30.03,SE,141,8.0,8.7,77,0.00,,,0.00,TxWx,2013-04-18 11:09:00,
2013-04-18 07:12:00,77.2,69.0,30.03,ESE,118,6.8,8.0,78,0.00,,,0.00,TxWx,2013-04-18 11:12:00,
2013-04-18 07:14:00,77.3,69.0,30.03,ESE,118,8.7,8.7,78,0.00,,,0.00,TxWx,2013-04-18 11:14:00,
2013-04-18 07:15:00,77.0,69.0,30.03,ESE,118,8.7,9.3,78,0.00,,,0.00,TxWx,2013-04-18 11:15:00,
2013-04-18 07:18:00,77.0,69.0,30.04,ESE,118,9.3,9.3,78,0.00,,,0.00,TxWx,2013-04-18 11:18:00,
2013-04-18 07:19:00,77.1,69.0,30.04,SE,141,7.4,7.4,77,0.00,,,0.00,TxWx,2013-04-18 11:19:00,
2013-04-18 07:20:00,76.9,69.0,30.04,SE,141,7.4,7.4,77,0.00,,,0.00,TxWx,2013-04-18 11:20:00,
2013-04-18 07:22:00,77.1,68.0,30.04,SE,141,6.2,6.8,75,0.00,,,0.00,TxWx,2013-04-18 11:22:00,
2013-04-18 07:23:00,77.3,68.0,30.04,ESE,118,6.2,6.8,75,0.00,,,0.00,TxWx,2013-04-18 11:23:00,
2013-04-18 07:24:00,77.5,69.0,30.04,SSE,163,6.8,8.0,75,0.00,,,0.00,TxWx,2013-04-18 11:24:00,
2013-04-18 07:25:00,77.4,68.0,30.04,ESE,118,8.0,8.7,75,0.00,,,0.00,TxWx,2013-04-18 11:25:00,
2013-04-18 07:28:00,77.6,69.0,30.04,SE,141,7.4,8.7,74,0.00,,,0.00,TxWx,2013-04-18 11:28:00,
2013-04-18 07:30:00,77.5,68.0,30.04,ESE,118,6.8,6.8,74,0.00,,,0.00,TxWx,2013-04-18 11:30:00,
2013-04-18 07:31:00,77.6,69.0,30.04,SE,141,9.3,9.3,74,0.00,,,0.00,TxWx,2013-04-18 11:31:00,
2013-04-18 07:35:00,77.6,69.0,30.04,ESE,118,6.8,6.8,73,0.00,,,0.00,TxWx,2013-04-18 11:35:00,
2013-04-18 07:36:00,77.3,67.0,30.04,ESE,118,9.3,9.3,73,0.00,,,0.00,TxWx,2013-04-18 11:36:00,
2013-04-18 07:37:00,77.4,67.0,30.04,SE,141,8.0,8.0,72,0.00,,,0.00,TxWx,2013-04-18 11:37:00,
2013-04-18 07:40:00,77.4,67.0,30.04,SE,141,9.9,10.5,72,0.00,,,0.00,TxWx,2013-04-18 11:40:00,
2013-04-18 07:41:00,77.6,68.0,30.04,SE,141,9.3,9.3,72,0.00,,,0.00,TxWx,2013-04-18 11:41:00,
2013-04-18 07:42:00,77.7,68.0,30.04,SE,141,8.0,9.3,72,0.00,,,0.00,TxWx,2013-04-18 11:42:00,
2013-04-18 07:44:00,77.7,68.0,30.04,ESE,118,9.3,10.5,72,0.00,,,0.00,TxWx,2013-04-18 11:44:00,
2013-04-18 07:46:00,77.6,68.0,30.04,SE,141,9.3,10.5,72,0.00,,,0.00,TxWx,2013-04-18 11:46:00,
2013-04-18 07:47:00,77.5,68.0,30.04,SE,141,9.3,9.3,73,0.00,,,0.00,TxWx,2013-04-18 11:47:00,
2013-04-18 07:49:00,77.6,69.0,30.04,SSE,163,9.3,9.3,73,0.00,,,0.00,TxWx,2013-04-18 11:49:00,
2013-04-18 07:51:00,77.5,68.0,30.04,SE,141,7.4,8.7,74,0.00,,,0.00,TxWx,2013-04-18 11:51:00,
2013-04-18 07:52:00,77.4,68.0,30.04,SE,141,11.1,11.1,73,0.00,,,0.00,TxWx,2013-04-18 11:52:00,
2013-04-18 07:53:00,77.6,69.0,30.04,SE,141,9.9,9.9,73,0.00,,,0.00,TxWx,2013-04-18 11:53:00,
2013-04-18 07:54:00,77.6,69.0,30.04,SE,141,8.0,8.7,73,0.00,,,0.00,TxWx,2013-04-18 11:54:00,
2013-04-18 07:57:00,77.6,69.0,30.04,ESE,118,8.7,9.9,73,0.00,,,0.00,TxWx,2013-04-18 11:57:00,
2013-04-18 07:58:00,77.8,69.0,30.04,ESE,118,9.3,9.3,74,0.00,,,0.00,TxWx,2013-04-18 11:58:00,
2013-04-18 08:00:00,77.6,69.0,30.04,ESE,118,8.7,9.3,74,0.00,,,0.00,TxWx,2013-04-18 12:00:00,
2013-04-18 08:03:00,77.4,68.0,30.04,ESE,118,9.3,9.9,74,0.00,,,0.00,TxWx,2013-04-18 12:03:00,
2013-04-18 08:04:00,77.6,69.0,30.04,East,96,9.9,11.1,74,0.00,,,0.00,TxWx,2013-04-18 12:04:00,
2013-04-18 08:06:00,77.5,68.0,30.04,SE,141,8.7,8.7,75,0.00,,,0.00,TxWx,2013-04-18 12:06:00,
2013-04-18 08:08:00,77.6,69.0,30.04,ESE,118,7.4,8.0,75,0.00,,,0.00,TxWx,2013-04-18 12:08:00,
2013-04-18 08:10:00,77.4,68.0,30.04,SE,141,9.3,9.9,75,0.00,,,0.00,TxWx,2013-04-18 12:10:00,
2013-04-18 08:11:00,77.4,68.0,30.05,East,96,7.4,9.9,75,0.00,,,0.00,TxWx,2013-04-18 12:11:00,
2013-04-18 08:12:00,77.4,68.0,30.05,SE,141,6.8,7.4,75,0.00,,,0.00,TxWx,2013-04-18 12:12:00,
2013-04-18 08:14:00,77.6,69.0,30.05,SE,141,11.8,11.8,75,0.00,,,0.00,TxWx,2013-04-18 12:14:00,
2013-04-18 08:15:00,77.3,68.0,30.05,ESE,118,10.5,10.5,75,0.00,,,0.00,TxWx,2013-04-18 12:15:00,
2013-04-18 08:17:00,77.7,69.0,30.05,SE,141,8.0,8.7,75,0.00,,,0.00,TxWx,2013-04-18 12:17:00,
2013-04-18 08:18:00,77.6,69.0,30.05,SE,141,8.7,9.3,75,0.00,,,0.00,TxWx,2013-04-18 12:18:00,
2013-04-18 08:21:00,77.5,69.0,30.05,SE,141,11.1,11.1,75,0.00,,,0.00,TxWx,2013-04-18 12:21:00,
2013-04-18 08:22:00,77.7,69.0,30.05,ESE,118,11.1,11.1,75,0.00,,,0.00,TxWx,2013-04-18 12:22:00,
2013-04-18 08:23:00,77.8,69.0,30.05,SE,141,8.7,8.7,75,0.00,,,0.00,TxWx,2013-04-18 12:23:00,
2013-04-18 08:25:00,77.7,69.0,30.05,SE,141,8.7,8.7,75,0.00,,,0.00,TxWx,2013-04-18 12:25:00,
2013-04-18 08:27:00,78.0,69.0,30.05,ESE,118,7.4,7.4,75,0.00,,,0.00,TxWx,2013-04-18 12:27:00,
2013-04-18 08:28:00,77.7,69.0,30.05,ESE,118,7.4,8.0,74,0.00,,,0.00,TxWx,2013-04-18 12:28:00,
2013-04-18 08:30:00,78.1,69.0,30.05,ESE,118,8.0,10.5,75,0.00,,,0.00,TxWx,2013-04-18 12:30:00,
2013-04-18 08:34:00,77.9,69.0,30.05,SE,141,9.9,9.9,74,0.00,,,0.00,TxWx,2013-04-18 12:34:00,
2013-04-18 08:35:00,78.5,69.0,30.05,SE,141,9.3,9.3,75,0.00,,,0.00,TxWx,2013-04-18 12:35:00,
2013-04-18 08:37:00,78.0,69.0,30.05,ESE,118,7.4,8.0,74,0.00,,,0.00,TxWx,2013-04-18 12:37:00,
2013-04-18 08:39:00,78.2,69.0,30.05,SE,141,8.7,8.7,74,0.00,,,0.00,TxWx,2013-04-18 12:39:00,
2013-04-18 08:42:00,78.4,69.0,30.05,SE,141,5.6,5.6,73,0.00,,,0.00,TxWx,2013-04-18 12:42:00,
2013-04-18 08:44:00,78.4,69.0,30.06,SE,141,8.0,8.7,74,0.00,,,0.00,TxWx,2013-04-18 12:44:00,
2013-04-18 08:47:00,78.3,68.0,30.05,SE,141,7.4,7.4,73,0.00,,,0.00,TxWx,2013-04-18 12:47:00,
2013-04-18 08:49:00,78.4,68.0,30.05,SE,141,7.4,8.0,73,0.00,,,0.00,TxWx,2013-04-18 12:49:00,
2013-04-18 08:50:00,78.4,69.0,30.05,SE,141,9.3,9.3,73,0.00,,,0.00,TxWx,2013-04-18 12:50:00,
2013-04-18 08:52:00,78.5,70.0,30.05,SSE,163,8.0,9.3,73,0.00,,,0.00,TxWx,2013-04-18 12:52:00,
2013-04-18 08:53:00,78.5,69.0,30.05,ESE,118,6.8,7.4,73,0.00,,,0.00,TxWx,2013-04-18 12:53:00,
2013-04-18 08:54:00,78.5,69.0,30.05,East,96,8.0,8.0,73,0.00,,,0.00,TxWx,2013-04-18 12:54:00,
2013-04-18 08:55:00,78.4,69.0,30.05,East,96,8.0,8.0,73,0.00,,,0.00,TxWx,2013-04-18 12:55:00,
2013-04-18 08:58:00,78.4,68.0,30.05,SE,141,9.3,9.3,72,0.00,,,0.00,TxWx,2013-04-18 12:58:00,
2013-04-18 09:00:00,78.5,68.0,30.05,ESE,118,9.3,9.9,72,0.00,,,0.00,TxWx,2013-04-18 13:00:00,
2013-04-18 09:01:00,78.4,68.0,30.05,ESE,118,8.0,8.0,72,0.00,,,0.00,TxWx,2013-04-18 13:01:00,
2013-04-18 09:06:00,78.5,69.0,30.05,SE,141,8.7,9.9,72,0.00,,,0.00,TxWx,2013-04-18 13:06:00,
2013-04-18 09:07:00,78.4,68.0,30.05,SE,141,8.7,9.3,72,0.00,,,0.00,TxWx,2013-04-18 13:07:00,
2013-04-18 09:09:00,78.7,69.0,30.05,SE,141,8.0,8.7,73,0.00,,,0.00,TxWx,2013-04-18 13:09:00,
2013-04-18 09:10:00,78.6,70.0,30.05,SE,141,8.7,9.3,73,0.00,,,0.00,TxWx,2013-04-18 13:10:00,
2013-04-18 09:12:00,78.3,68.0,30.05,SE,141,8.7,9.3,73,0.00,,,0.00,TxWx,2013-04-18 13:12:00,
2013-04-18 09:13:00,78.5,70.0,30.05,East,96,8.0,8.0,73,0.00,,,0.00,TxWx,2013-04-18 13:13:00,
2013-04-18 09:14:00,78.6,70.0,30.06,SE,141,7.4,9.9,74,0.00,,,0.00,TxWx,2013-04-18 13:14:00,
2013-04-18 09:15:00,78.3,69.0,30.06,SE,141,11.1,11.1,73,0.00,,,0.00,TxWx,2013-04-18 13:15:00,
2013-04-18 09:17:00,78.7,70.0,30.06,ESE,118,6.8,7.4,73,0.00,,,0.00,TxWx,2013-04-18 13:17:00,
2013-04-18 09:19:00,78.5,69.0,30.06,SE,141,8.0,8.0,73,0.00,,,0.00,TxWx,2013-04-18 13:19:00,
2013-04-18 09:20:00,78.8,69.0,30.06,ESE,118,6.2,7.4,73,0.00,,,0.00,TxWx,2013-04-18 13:20:00,
2013-04-18 09:21:00,78.7,69.0,30.06,SE,141,9.3,9.3,73,0.00,,,0.00,TxWx,2013-04-18 13:21:00,
2013-04-18 09:23:00,78.5,69.0,30.06,SSE,163,7.4,8.7,71,0.00,,,0.00,TxWx,2013-04-18 13:23:00,
2013-04-18 09:26:00,78.6,69.0,30.06,SE,141,8.7,9.3,72,0.00,,,0.00,TxWx,2013-04-18 13:26:00,
2013-04-18 09:28:00,78.5,69.0,30.06,SE,141,9.9,11.1,73,0.00,,,0.00,TxWx,2013-04-18 13:28:00,
2013-04-18 09:31:00,78.5,69.0,30.06,SE,141,9.9,9.9,72,0.00,,,0.00,TxWx,2013-04-18 13:31:00,
2013-04-18 09:32:00,78.7,69.0,30.06,SSE,163,8.0,8.7,73,0.00,,,0.00,TxWx,2013-04-18 13:32:00,
2013-04-18 09:33:00,78.7,69.0,30.06,SE,141,7.4,7.4,72,0.00,,,0.00,TxWx,2013-04-18 13:33:00,
2013-04-18 09:34:00,78.8,69.0,30.06,SE,141,9.9,9.9,73,0.00,,,0.00,TxWx,2013-04-18 13:34:00,
2013-04-18 09:38:00,78.4,69.0,30.06,SE,141,9.9,9.9,73,0.00,,,0.00,TxWx,2013-04-18 13:38:00,
2013-04-18 09:39:00,78.6,70.0,30.06,ESE,118,9.9,9.9,73,0.00,,,0.00,TxWx,2013-04-18 13:39:00,
2013-04-18 09:40:00,78.4,68.0,30.06,SE,141,9.3,9.9,73,0.00,,,0.00,TxWx,2013-04-18 13:40:00,
2013-04-18 09:41:00,78.7,70.0,30.06,ESE,118,10.5,11.1,73,0.00,,,0.00,TxWx,2013-04-18 13:41:00,
2013-04-18 09:44:00,78.7,70.0,30.06,SE,141,9.9,9.9,73,0.00,,,0.00,TxWx,2013-04-18 13:44:00,
2013-04-18 09:45:00,78.9,70.0,30.07,SE,141,7.4,8.0,73,0.00,,,0.00,TxWx,2013-04-18 13:45:00,
2013-04-18 09:46:00,78.9,70.0,30.06,SE,141,9.9,9.9,74,0.00,,,0.00,TxWx,2013-04-18 13:46:00,
2013-04-18 09:47:00,78.7,70.0,30.07,East,96,10.5,10.5,74,0.00,,,0.00,TxWx,2013-04-18 13:47:00,
2013-04-18 09:49:00,78.5,70.0,30.07,SE,141,10.5,13.0,74,0.00,,,0.00,TxWx,2013-04-18 13:49:00,
2013-04-18 09:50:00,78.7,70.0,30.07,ESE,118,9.9,10.5,74,0.00,,,0.00,TxWx,2013-04-18 13:50:00,
2013-04-18 09:51:00,78.8,70.0,30.07,SE,141,8.7,9.9,74,0.00,,,0.00,TxWx,2013-04-18 13:51:00,
2013-04-18 09:53:00,79.2,70.0,30.07,ESE,118,7.4,8.7,74,0.00,,,0.00,TxWx,2013-04-18 13:53:00,
2013-04-18 09:55:00,79.2,70.0,30.07,ESE,118,8.7,8.7,74,0.00,,,0.00,TxWx,2013-04-18 13:55:00,
2013-04-18 09:56:00,79.0,70.0,30.07,SE,141,8.7,8.7,73,0.00,,,0.00,TxWx,2013-04-18 13:56:00,
2013-04-18 09:58:00,78.6,69.0,30.07,SE,141,10.5,10.5,73,0.00,,,0.00,TxWx,2013-04-18 13:58:00,
2013-04-18 09:59:00,78.8,69.0,30.07,SE,141,8.7,10.5,73,0.00,,,0.00,TxWx,2013-04-18 13:59:00,
2013-04-18 10:01:00,78.6,69.0,30.08,SE,141,10.5,10.5,73,0.00,,,0.00,TxWx,2013-04-18 14:01:00,
2013-04-18 10:03:00,79.0,70.0,30.07,SE,141,8.0,8.7,74,0.00,,,0.00,TxWx,2013-04-18 14:03:00,
2013-04-18 10:04:00,79.0,70.0,30.07,ESE,118,8.7,8.7,74,0.00,,,0.00,TxWx,2013-04-18 14:04:00,
2013-04-18 10:05:00,79.2,70.0,30.07,ESE,118,8.0,9.3,74,0.00,,,0.00,TxWx,2013-04-18 14:05:00,
2013-04-18 10:06:00,78.7,70.0,30.08,SE,141,9.9,9.9,73,0.00,,,0.00,TxWx,2013-04-18 14:06:00,
2013-04-18 10:08:00,78.9,69.0,30.08,ESE,118,10.5,11.8,73,0.00,,,0.00,TxWx,2013-04-18 14:08:00,
2013-04-18 10:10:00,79.1,69.0,30.08,SE,141,10.5,10.5,73,0.00,,,0.00,TxWx,2013-04-18 14:10:00,
2013-04-18 10:11:00,78.9,69.0,30.08,SE,141,8.7,8.7,73,0.00,,,0.00,TxWx,2013-04-18 14:11:00,
2013-04-18 10:12:00,78.9,70.0,30.08,SE,141,8.7,8.7,73,0.00,,,0.00,TxWx,2013-04-18 14:12:00,
2013-04-18 10:14:00,78.8,69.0,30.08,SE,141,9.9,9.9,73,0.00,,,0.00,TxWx,2013-04-18 14:14:00,
2013-04-18 10:16:00,79.2,70.0,30.08,SE,141,9.9,10.5,74,0.00,,,0.00,TxWx,2013-04-18 14:16:00,
2013-04-18 10:17:00,78.9,70.0,30.08,ESE,118,8.7,9.9,73,0.00,,,0.00,TxWx,2013-04-18 14:17:00,
2013-04-18 10:19:00,79.0,70.0,30.08,SE,141,8.0,8.0,73,0.00,,,0.00,TxWx,2013-04-18 14:19:00,
2013-04-18 10:21:00,79.0,70.0,30.08,ESE,118,8.7,8.7,73,0.00,,,0.00,TxWx,2013-04-18 14:21:00,
2013-04-18 10:22:00,78.9,70.0,30.08,ESE,118,9.9,9.9,73,0.00,,,0.00,TxWx,2013-04-18 14:22:00,
2013-04-18 10:24:00,78.9,69.0,30.08,SE,141,8.7,8.7,73,0.00,,,0.00,TxWx,2013-04-18 14:24:00,
2013-04-18 10:25:00,78.9,69.0,30.08,ESE,118,11.1,11.1,72,0.00,,,0.00,TxWx,2013-04-18 14:25:00,
2013-04-18 10:28:00,79.4,70.0,30.08,SE,141,7.4,8.7,73,0.00,,,0.00,TxWx,2013-04-18 14:28:00,
2013-04-18 10:29:00,79.1,69.0,30.08,SE,141,11.8,11.8,73,0.00,,,0.00,TxWx,2013-04-18 14:29:00,
2013-04-18 10:30:00,79.0,69.0,30.08,SE,141,9.3,9.3,72,0.00,,,0.00,TxWx,2013-04-18 14:30:00,
2013-04-18 10:34:00,79.4,70.0,30.08,SE,141,9.3,9.3,73,0.00,,,0.00,TxWx,2013-04-18 14:34:00,
2013-04-18 10:35:00,78.9,69.0,30.08,SE,141,12.4,12.4,73,0.00,,,0.00,TxWx,2013-04-18 14:35:00,
2013-04-18 10:36:00,79.2,69.0,30.08,SE,141,8.0,8.7,73,0.00,,,0.00,TxWx,2013-04-18 14:36:00,
2013-04-18 10:40:00,78.6,69.0,30.08,SE,141,9.3,10.5,72,0.00,,,0.00,TxWx,2013-04-18 14:40:00,
2013-04-18 10:41:00,78.7,69.0,30.08,ESE,118,11.1,11.1,72,0.00,,,0.00,TxWx,2013-04-18 14:41:00,
2013-04-18 10:42:00,79.1,69.0,30.08,ESE,118,10.5,10.5,72,0.00,,,0.00,TxWx,2013-04-18 14:42:00,
2013-04-18 10:46:00,79.0,69.0,30.08,SE,141,9.9,9.9,72,0.00,,,0.00,TxWx,2013-04-18 14:46:00,
2013-04-18 10:47:00,79.1,69.0,30.08,ESE,118,9.3,10.5,73,0.00,,,0.00,TxWx,2013-04-18 14:47:00,
2013-04-18 10:50:00,79.3,70.0,30.08,SE,141,8.7,8.7,74,0.00,,,0.00,TxWx,2013-04-18 14:50:00,
2013-04-18 10:51:00,79.2,70.0,30.08,ESE,118,8.7,9.3,74,0.00,,,0.00,TxWx,2013-04-18 14:51:00,
2013-04-18 10:52:00,78.9,70.0,30.08,East,96,9.3,9.3,73,0.00,,,0.00,TxWx,2013-04-18 14:52:00,
2013-04-18 10:55:00,79.1,70.0,30.08,SE,141,10.5,10.5,73,0.00,,,0.00,TxWx,2013-04-18 14:55:00,
2013-04-18 10:56:00,79.4,70.0,30.08,ESE,118,8.7,8.7,73,0.00,,,0.00,TxWx,2013-04-18 14:56:00,
2013-04-18 10:57:00,78.9,69.0,30.08,ESE,118,9.9,11.1,72,0.00,,,0.00,TxWx,2013-04-18 14:57:00,
2013-04-18 11:00:00,79.3,69.0,30.08,SE,141,9.9,9.9,72,0.00,,,0.00,TxWx,2013-04-18 15:00:00,
2013-04-18 11:01:00,79.5,70.0,30.08,SE,141,10.5,12.4,72,0.00,,,0.00,TxWx,2013-04-18 15:01:00,
2013-04-18 11:02:00,79.4,69.0,30.08,SE,141,10.5,12.4,72,0.00,,,0.00,TxWx,2013-04-18 15:02:00,
2013-04-18 11:07:00,79.1,69.0,30.07,ESE,118,9.9,11.8,72,0.00,,,0.00,TxWx,2013-04-18 15:07:00,
2013-04-18 11:08:00,79.1,69.0,30.08,ESE,118,11.1,11.1,72,0.00,,,0.00,TxWx,2013-04-18 15:08:00,
2013-04-18 11:10:00,79.2,69.0,30.07,SE,141,9.9,9.9,73,0.00,,,0.00,TxWx,2013-04-18 15:10:00,
2013-04-18 11:12:00,79.3,69.0,30.07,SE,141,10.5,10.5,73,0.00,,,0.00,TxWx,2013-04-18 15:12:00,
2013-04-18 11:13:00,79.0,69.0,30.07,SE,141,10.5,10.5,72,0.00,,,0.00,TxWx,2013-04-18 15:13:00,
2013-04-18 11:14:00,79.0,69.0,30.07,SE,141,10.5,11.8,72,0.00,,,0.00,TxWx,2013-04-18 15:14:00,
2013-04-18 11:16:00,79.2,69.0,30.07,SE,141,11.8,11.8,73,0.00,,,0.00,TxWx,2013-04-18 15:16:00,
2013-04-18 11:17:00,79.3,70.0,30.07,SE,141,12.4,12.4,73,0.00,,,0.00,TxWx,2013-04-18 15:17:00,
2013-04-18 11:19:00,79.2,70.0,30.08,SE,141,9.9,12.4,73,0.00,,,0.00,TxWx,2013-04-18 15:19:00,
2013-04-18 11:22:00,79.1,69.0,30.07,ESE,118,11.8,11.8,72,0.00,,,0.00,TxWx,2013-04-18 15:22:00,
2013-04-18 11:23:00,79.0,69.0,30.07,SE,141,11.1,11.8,72,0.00,,,0.00,TxWx,2013-04-18 15:23:00,
2013-04-18 11:24:00,79.1,69.0,30.07,SE,141,9.3,11.1,73,0.00,,,0.00,TxWx,2013-04-18 15:24:00,
2013-04-18 11:25:00,79.1,69.0,30.07,ESE,118,8.0,8.7,72,0.00,,,0.00,TxWx,2013-04-18 15:25:00,
2013-04-18 11:27:00,79.0,69.0,30.07,SE,141,11.1,13.0,72,0.00,,,0.00,TxWx,2013-04-18 15:27:00,
2013-04-18 11:28:00,79.1,69.0,30.07,SSE,163,11.1,11.1,72,0.00,,,0.00,TxWx,2013-04-18 15:28:00,
2013-04-18 11:29:00,79.0,69.0,30.07,ESE,118,13.0,13.0,72,0.00,,,0.00,TxWx,2013-04-18 15:29:00,
2013-04-18 11:31:00,79.0,69.0,30.07,SE,141,11.1,11.1,72,0.00,,,0.00,TxWx,2013-04-18 15:31:00,
2013-04-18 11:33:00,79.1,69.0,30.07,SE,141,13.6,14.2,72,0.00,,,0.00,TxWx,2013-04-18 15:33:00,
2013-04-18 11:34:00,79.0,69.0,30.07,SE,141,10.5,11.8,72,0.00,,,0.00,TxWx,2013-04-18 15:34:00,
2013-04-18 11:36:00,79.2,70.0,30.07,ESE,118,10.5,12.4,73,0.00,,,0.00,TxWx,2013-04-18 15:36:00,
2013-04-18 11:37:00,79.1,70.0,30.07,ESE,118,15.5,15.5,73,0.00,,,0.00,TxWx,2013-04-18 15:37:00,
2013-04-18 11:38:00,78.8,69.0,30.07,SE,141,9.9,11.8,73,0.00,,,0.00,TxWx,2013-04-18 15:38:00,
2013-04-18 11:40:00,78.9,69.0,30.06,ESE,118,12.4,12.4,73,0.00,,,0.00,TxWx,2013-04-18 15:40:00,
2013-04-18 11:41:00,79.0,69.0,30.07,SE,141,11.1,11.1,73,0.00,,,0.00,TxWx,2013-04-18 15:41:00,
2013-04-18 11:42:00,79.2,70.0,30.07,SE,141,11.8,11.8,73,0.00,,,0.00,TxWx,2013-04-18 15:42:00,
2013-04-18 11:44:00,78.9,69.0,30.06,SSE,163,12.4,13.0,72,0.00,,,0.00,TxWx,2013-04-18 15:44:00,
2013-04-18 11:45:00,79.0,69.0,30.06,East,96,15.5,15.5,72,0.00,,,0.00,TxWx,2013-04-18 15:45:00,
2013-04-18 11:47:00,79.2,69.0,30.06,SE,141,12.4,13.6,73,0.00,,,0.00,TxWx,2013-04-18 15:47:00,
2013-04-18 11:49:00,79.1,69.0,30.06,SE,141,9.9,11.8,72,0.00,,,0.00,TxWx,2013-04-18 15:49:00,
2013-04-18 11:50:00,79.3,69.0,30.06,SE,141,11.8,13.0,73,0.00,,,0.00,TxWx,2013-04-18 15:50:00,
2013-04-18 11:51:00,79.4,69.0,30.06,SE,141,11.1,12.4,73,0.00,,,0.00,TxWx,2013-04-18 15:51:00,
2013-04-18 11:54:00,79.3,69.0,30.06,SE,141,10.5,10.5,72,0.00,,,0.00,TxWx,2013-04-18 15:54:00,
2013-04-18 11:55:00,79.4,69.0,30.06,ESE,118,11.1,12.4,73,0.00,,,0.00,TxWx,2013-04-18 15:55:00,
2013-04-18 11:56:00,79.5,69.0,30.06,SE,141,11.1,11.1,73,0.00,,,0.00,TxWx,2013-04-18 15:56:00,
2013-04-18 11:58:00,79.5,69.0,30.07,SE,141,10.5,10.5,73,0.00,,,0.00,TxWx,2013-04-18 15:58:00,
2013-04-18 12:00:00,79.4,69.0,30.07,East,96,9.9,11.8,72,0.00,,,0.00,TxWx,2013-04-18 16:00:00,
2013-04-18 12:01:00,79.3,69.0,30.07,ESE,118,11.8,12.4,72,0.00,,,0.00,TxWx,2013-04-18 16:01:00,
2013-04-18 12:02:00,79.3,69.0,30.07,ESE,118,8.7,11.1,72,0.00,,,0.00,TxWx,2013-04-18 16:02:00,
2013-04-18 12:03:00,79.5,70.0,30.06,SE,141,12.4,12.4,73,0.00,,,0.00,TxWx,2013-04-18 16:03:00,
2013-04-18 12:04:00,79.4,69.0,30.06,SE,141,12.4,12.4,72,0.00,,,0.00,TxWx,2013-04-18 16:04:00,
2013-04-18 12:05:00,79.4,69.0,30.06,SE,141,12.4,12.4,72,0.00,,,0.00,TxWx,2013-04-18 16:05:00,
2013-04-18 12:07:00,79.4,69.0,30.06,SE,141,11.1,11.1,73,0.00,,,0.00,TxWx,2013-04-18 16:07:00,
2013-04-18 12:08:00,79.2,69.0,30.06,ESE,118,10.5,11.1,73,0.00,,,0.00,TxWx,2013-04-18 16:08:00,
2013-04-18 12:09:00,79.6,71.0,30.06,SE,141,12.4,12.4,74,0.00,,,0.00,TxWx,2013-04-18 16:09:00,
2013-04-18 12:11:00,79.4,70.0,30.06,SE,141,12.4,12.4,73,0.00,,,0.00,TxWx,2013-04-18 16:11:00,
2013-04-18 12:12:00,79.5,71.0,30.07,SE,141,11.1,11.1,73,0.00,,,0.00,TxWx,2013-04-18 16:12:00,
2013-04-18 12:14:00,79.4,70.0,30.06,SE,141,14.2,14.2,73,0.00,,,0.00,TxWx,2013-04-18 16:14:00,
2013-04-18 12:15:00,79.7,71.0,30.06,SE,141,9.9,9.9,74,0.00,,,0.00,TxWx,2013-04-18 16:15:00,
2013-04-18 12:16:00,79.4,70.0,30.06,ESE,118,9.9,11.8,74,0.00,,,0.00,TxWx,2013-04-18 16:16:00,
2013-04-18 12:17:00,79.4,70.0,30.06,SE,141,12.4,12.4,73,0.00,,,0.00,TxWx,2013-04-18 16:17:00,
2013-04-18 12:19:00,79.5,71.0,30.06,SE,141,10.5,11.1,74,0.00,,,0.00,TxWx,2013-04-18 16:19:00,
2013-04-18 12:20:00,79.9,71.0,30.06,ESE,118,8.7,9.3,74,0.00,,,0.00,TxWx,2013-04-18 16:20:00,
2013-04-18 12:21:00,79.4,70.0,30.06,ESE,118,11.1,11.1,73,0.00,,,0.00,TxWx,2013-04-18 16:21:00,
2013-04-18 12:22:00,79.4,70.0,30.06,SE,141,10.5,10.5,73,0.00,,,0.00,TxWx,2013-04-18 16:22:00,
2013-04-18 12:27:00,79.1,70.0,30.06,ESE,118,9.3,10.5,73,0.00,,,0.00,TxWx,2013-04-18 16:27:00,
2013-04-18 12:28:00,79.3,70.0,30.06,SSE,163,9.9,13.0,74,0.00,,,0.00,TxWx,2013-04-18 16:28:00,
2013-04-18 12:29:00,79.3,70.0,30.06,SE,141,11.8,13.0,73,0.00,,,0.00,TxWx,2013-04-18 16:29:00,
2013-04-18 12:33:00,79.8,71.0,30.05,SE,141,10.5,10.5,75,0.00,,,0.00,TxWx,2013-04-18 16:33:00,
2013-04-18 12:34:00,79.5,71.0,30.05,ESE,118,13.0,13.0,74,0.00,,,0.00,TxWx,2013-04-18 16:34:00,
2013-04-18 12:35:00,79.3,70.0,30.05,ESE,118,12.4,12.4,73,0.00,,,0.00,TxWx,2013-04-18 16:35:00,
2013-04-18 12:36:00,79.7,71.0,30.05,SE,141,9.3,9.9,74,0.00,,,0.00,TxWx,2013-04-18 16:36:00,
2013-04-18 12:39:00,79.2,69.0,30.05,SE,141,8.7,11.1,73,0.00,,,0.00,TxWx,2013-04-18 16:39:00,
2013-04-18 12:41:00,79.4,70.0,30.05,ESE,118,10.5,10.5,73,0.00,,,0.00,TxWx,2013-04-18 16:41:00,
2013-04-18 12:42:00,79.3,70.0,30.05,SE,141,11.8,11.8,73,0.00,,,0.00,TxWx,2013-04-18 16:42:00,
2013-04-18 12:44:00,79.5,70.0,30.05,SE,141,9.9,11.8,73,0.00,,,0.00,TxWx,2013-04-18 16:44:00,
2013-04-18 12:46:00,79.7,71.0,30.05,ESE,118,10.5,10.5,73,0.00,,,0.00,TxWx,2013-04-18 16:46:00,
2013-04-18 12:47:00,79.7,71.0,30.05,ESE,118,10.5,10.5,74,0.00,,,0.00,TxWx,2013-04-18 16:47:00,
2013-04-18 12:48:00,79.5,70.0,30.05,SE,141,9.3,9.9,73,0.00,,,0.00,TxWx,2013-04-18 16:48:00,
2013-04-18 12:50:00,79.4,70.0,30.05,ESE,118,9.9,11.1,73,0.00,,,0.00,TxWx,2013-04-18 16:50:00,
2013-04-18 12:51:00,79.2,69.0,30.05,SE,141,11.8,11.8,73,0.00,,,0.00,TxWx,2013-04-18 16:51:00,
2013-04-18 12:52:00,79.5,71.0,30.05,SE,141,10.5,11.1,73,0.00,,,0.00,TxWx,2013-04-18 16:52:00,
2013-04-18 12:53:00,79.6,71.0,30.05,SE,141,9.9,10.5,74,0.00,,,0.00,TxWx,2013-04-18 16:53:00,
2013-04-18 12:57:00,79.5,71.0,30.05,ESE,118,12.4,12.4,74,0.00,,,0.00,TxWx,2013-04-18 16:57:00,
2013-04-18 12:58:00,79.8,71.0,30.05,ESE,118,11.1,11.1,74,0.00,,,0.00,TxWx,2013-04-18 16:58:00,
2013-04-18 12:59:00,79.2,70.0,30.05,SE,141,12.4,12.4,74,0.00,,,0.00,TxWx,2013-04-18 16:59:00,
2013-04-18 13:00:00,79.3,70.0,30.05,SE,141,12.4,13.0,74,0.00,,,0.00,TxWx,2013-04-18 17:00:00,
2013-04-18 13:02:00,79.1,70.0,30.04,SE,141,13.6,13.6,74,0.00,,,0.00,TxWx,2013-04-18 17:02:00,
2013-04-18 13:03:00,79.1,70.0,30.04,SE,141,11.8,11.8,74,0.00,,,0.00,TxWx,2013-04-18 17:03:00,
2013-04-18 13:04:00,79.3,70.0,30.04,ESE,118,10.5,11.1,74,0.00,,,0.00,TxWx,2013-04-18 17:04:00,
2013-04-18 13:07:00,79.2,70.0,30.05,SE,141,11.8,13.0,74,0.00,,,0.00,TxWx,2013-04-18 17:07:00,
2013-04-18 13:09:00,79.7,71.0,30.05,SE,141,9.3,10.5,75,0.00,,,0.00,TxWx,2013-04-18 17:09:00,
2013-04-18 13:10:00,79.7,71.0,30.05,ESE,118,8.7,10.5,75,0.00,,,0.00,TxWx,2013-04-18 17:10:00,
2013-04-18 13:13:00,79.2,70.0,30.05,SE,141,9.9,11.8,74,0.00,,,0.00,TxWx,2013-04-18 17:13:00,
2013-04-18 13:14:00,79.6,71.0,30.05,SE,141,11.1,11.1,75,0.00,,,0.00,TxWx,2013-04-18 17:14:00,
2013-04-18 13:16:00,79.6,71.0,30.05,ESE,118,11.1,11.8,75,0.00,,,0.00,TxWx,2013-04-18 17:16:00,
2013-04-18 13:18:00,79.6,71.0,30.04,ESE,118,11.1,11.1,75,0.00,,,0.00,TxWx,2013-04-18 17:18:00,
2013-04-18 13:19:00,79.4,70.0,30.04,SE,141,9.9,9.9,75,0.00,,,0.00,TxWx,2013-04-18 17:19:00,
2013-04-18 13:21:00,79.2,70.0,30.04,ESE,118,9.9,10.5,75,0.00,,,0.00,TxWx,2013-04-18 17:21:00,
2013-04-18 13:23:00,79.3,70.0,30.04,ESE,118,13.0,13.0,75,0.00,,,0.00,TxWx,2013-04-18 17:23:00,
2013-04-18 13:25:00,79.1,70.0,30.04,ESE,118,12.4,12.4,74,0.00,,,0.00,TxWx,2013-04-18 17:25:00,
2013-04-18 13:26:00,79.1,70.0,30.04,SE,141,11.8,11.8,74,0.00,,,0.00,TxWx,2013-04-18 17:26:00,
2013-04-18 13:28:00,79.2,70.0,30.05,SE,141,12.4,12.4,75,0.00,,,0.00,TxWx,2013-04-18 17:28:00,
2013-04-18 13:30:00,79.5,71.0,30.05,SE,141,11.8,11.8,76,0.00,,,0.00,TxWx,2013-04-18 17:30:00,
2013-04-18 13:31:00,79.6,72.0,30.05,ESE,118,9.9,9.9,76,0.00,,,0.00,TxWx,2013-04-18 17:31:00,
2013-04-18 13:32:00,79.5,71.0,30.05,ESE,118,10.5,11.8,76,0.00,,,0.00,TxWx,2013-04-18 17:32:00,
2013-04-18 13:35:00,79.2,70.0,30.05,SE,141,8.7,9.9,75,0.00,,,0.00,TxWx,2013-04-18 17:35:00,
2013-04-18 13:36:00,79.6,72.0,30.05,ESE,118,9.9,11.1,76,0.00,,,0.00,TxWx,2013-04-18 17:36:00,
2013-04-18 13:37:00,79.5,71.0,30.05,East,96,9.9,9.9,75,0.00,,,0.00,TxWx,2013-04-18 17:37:00,
2013-04-18 13:39:00,79.6,72.0,30.05,SE,141,8.7,10.5,76,0.00,,,0.00,TxWx,2013-04-18 17:39:00,
2013-04-18 13:41:00,79.3,70.0,30.04,ESE,118,10.5,11.8,75,0.00,,,0.00,TxWx,2013-04-18 17:41:00,
2013-04-18 13:43:00,79.5,71.0,30.04,ESE,118,9.3,10.5,75,0.00,,,0.00,TxWx,2013-04-18 17:43:00,
2013-04-18 13:44:00,79.7,72.0,30.05,SE,141,9.3,9.9,76,0.00,,,0.00,TxWx,2013-04-18 17:44:00,
2013-04-18 13:47:00,79.5,71.0,30.04,ESE,118,12.4,12.4,76,0.00,,,0.00,TxWx,2013-04-18 17:47:00,
2013-04-18 13:48:00,79.5,70.0,30.05,East,96,11.8,11.8,75,0.00,,,0.00,TxWx,2013-04-18 17:48:00,
2013-04-18 13:49:00,79.4,70.0,30.05,ESE,118,11.1,12.4,75,0.00,,,0.00,TxWx,2013-04-18 17:49:00,
2013-04-18 13:52:00,79.7,72.0,30.05,SE,141,10.5,11.8,76,0.00,,,0.00,TxWx,2013-04-18 17:52:00,
2013-04-18 13:53:00,79.5,71.0,30.05,SE,141,9.9,11.1,75,0.00,,,0.00,TxWx,2013-04-18 17:53:00,
2013-04-18 13:54:00,79.5,71.0,30.05,East,96,9.9,9.9,75,0.00,,,0.00,TxWx,2013-04-18 17:54:00,
2013-04-18 13:56:00,79.6,71.0,30.05,ESE,118,8.7,11.1,75,0.00,,,0.00,TxWx,2013-04-18 17:56:00,
2013-04-18 13:57:00,79.4,70.0,30.05,ESE,118,11.1,11.1,75,0.00,,,0.00,TxWx,2013-04-18 17:57:00,
2013-04-18 13:59:00,79.7,72.0,30.05,ESE,118,9.9,9.9,76,0.00,,,0.00,TxWx,2013-04-18 17:59:00,
2013-04-18 14:00:00,79.8,72.0,30.05,SE,141,8.7,11.8,76,0.00,,,0.00,TxWx,2013-04-18 18:00:00,
2013-04-18 14:04:00,79.5,71.0,30.05,ESE,118,9.9,9.9,75,0.00,,,0.00,TxWx,2013-04-18 18:04:00,
2013-04-18 14:05:00,79.4,70.0,30.05,SE,141,9.9,9.9,75,0.00,,,0.00,TxWx,2013-04-18 18:05:00,
2013-04-18 14:06:00,79.4,70.0,30.05,East,96,11.1,11.1,75,0.00,,,0.00,TxWx,2013-04-18 18:06:00,
2013-04-18 14:10:00,79.7,72.0,30.05,SE,141,9.3,9.3,76,0.00,,,0.00,TxWx,2013-04-18 18:10:00,
2013-04-18 14:11:00,79.6,72.0,30.04,East,96,11.1,12.4,76,0.00,,,0.00,TxWx,2013-04-18 18:11:00,
2013-04-18 14:12:00,79.8,72.0,30.04,ESE,118,9.9,9.9,76,0.00,,,0.00,TxWx,2013-04-18 18:12:00,
2013-04-18 14:14:00,79.6,72.0,30.04,ESE,118,11.8,11.8,76,0.00,,,0.00,TxWx,2013-04-18 18:14:00,
2013-04-18 14:15:00,79.7,72.0,30.04,ESE,118,10.5,10.5,76,0.00,,,0.00,TxWx,2013-04-18 18:15:00,
2013-04-18 14:16:00,79.8,72.0,30.04,ESE,118,10.5,11.1,76,0.00,,,0.00,TxWx,2013-04-18 18:16:00,
2013-04-18 14:20:00,79.9,72.0,30.04,SE,141,9.9,9.9,76,0.00,,,0.00,TxWx,2013-04-18 18:20:00,
2013-04-18 14:22:00,79.9,72.0,30.04,SE,141,9.3,9.3,76,0.00,,,0.00,TxWx,2013-04-18 18:22:00,
2013-04-18 14:23:00,79.7,72.0,30.04,SE,141,11.1,11.8,76,0.00,,,0.00,TxWx,2013-04-18 18:23:00,
2013-04-18 14:27:00,79.8,72.0,30.04,ESE,118,11.1,12.4,76,0.00,,,0.00,TxWx,2013-04-18 18:27:00,
2013-04-18 14:28:00,79.7,72.0,30.04,ESE,118,11.1,11.8,76,0.00,,,0.00,TxWx,2013-04-18 18:28:00,
2013-04-18 14:29:00,80.1,72.0,30.04,ESE,118,10.5,10.5,77,0.00,,,0.00,TxWx,2013-04-18 18:29:00,
2013-04-18 14:33:00,80.1,72.0,30.03,East,96,11.1,11.1,77,0.00,,,0.00,TxWx,2013-04-18 18:33:00,
2013-04-18 14:34:00,80.0,72.0,30.03,ESE,118,10.5,11.1,77,0.00,,,0.00,TxWx,2013-04-18 18:34:00,
2013-04-18 14:35:00,79.9,72.0,30.03,ESE,118,9.9,11.1,77,0.00,,,0.00,TxWx,2013-04-18 18:35:00,
2013-04-18 14:38:00,80.2,72.0,30.03,ESE,118,9.9,10.5,76,0.00,,,0.00,TxWx,2013-04-18 18:38:00,
2013-04-18 14:40:00,80.0,72.0,30.03,East,96,9.3,10.5,76,0.00,,,0.00,TxWx,2013-04-18 18:40:00,
2013-04-18 14:41:00,79.9,72.0,30.03,SE,141,8.7,9.9,76,0.00,,,0.00,TxWx,2013-04-18 18:41:00,
2013-04-18 14:44:00,79.9,72.0,30.03,ESE,118,9.9,9.9,76,0.00,,,0.00,TxWx,2013-04-18 18:44:00,
2013-04-18 14:46:00,79.8,72.0,30.03,SE,141,13.0,13.0,76,0.00,,,0.00,TxWx,2013-04-18 18:46:00,
2013-04-18 14:48:00,79.7,71.0,30.02,ESE,118,11.1,12.4,74,0.00,,,0.00,TxWx,2013-04-18 18:48:00,
2013-04-18 14:49:00,79.9,71.0,30.02,ESE,118,10.5,12.4,75,0.00,,,0.00,TxWx,2013-04-18 18:49:00,
2013-04-18 14:51:00,79.8,71.0,30.02,SE,141,10.5,10.5,75,0.00,,,0.00,TxWx,2013-04-18 18:51:00,
2013-04-18 14:53:00,79.9,71.0,30.02,SSE,163,11.1,11.1,75,0.00,,,0.00,TxWx,2013-04-18 18:53:00,
2013-04-18 14:54:00,79.6,71.0,30.02,SE,141,11.1,11.1,75,0.00,,,0.00,TxWx,2013-04-18 18:54:00,
2013-04-18 14:55:00,79.7,71.0,30.02,SE,141,9.3,10.5,75,0.00,,,0.00,TxWx,2013-04-18 18:55:00,
2013-04-18 14:57:00,79.8,71.0,30.02,ESE,118,11.1,11.1,75,0.00,,,0.00,TxWx,2013-04-18 18:57:00,
2013-04-18 14:59:00,79.8,71.0,30.02,ESE,118,11.1,11.8,75,0.00,,,0.00,TxWx,2013-04-18 18:59:00,
2013-04-18 15:00:00,79.7,71.0,30.02,SE,141,11.8,12.4,75,0.00,,,0.00,TxWx,2013-04-18 19:00:00,
2013-04-18 15:02:00,80.0,71.0,30.02,SE,141,9.9,12.4,75,0.00,,,0.00,TxWx,2013-04-18 19:02:00,
2013-04-18 15:04:00,79.9,71.0,30.02,SE,141,9.3,11.1,75,0.00,,,0.00,TxWx,2013-04-18 19:04:00,
2013-04-18 15:07:00,79.7,71.0,30.02,SE,141,13.6,13.6,74,0.00,,,0.00,TxWx,2013-04-18 19:07:00,
2013-04-18 15:08:00,79.9,71.0,30.02,ESE,118,11.8,13.0,75,0.00,,,0.00,TxWx,2013-04-18 19:08:00,
2013-04-18 15:10:00,79.8,71.0,30.02,ESE,118,11.1,12.4,74,0.00,,,0.00,TxWx,2013-04-18 19:10:00,
2013-04-18 15:13:00,80.0,71.0,30.02,SE,141,9.9,11.1,75,0.00,,,0.00,TxWx,2013-04-18 19:13:00,
2013-04-18 15:14:00,80.1,71.0,30.02,ESE,118,7.4,7.4,75,0.00,,,0.00,TxWx,2013-04-18 19:14:00,
2013-04-18 15:15:00,80.5,72.0,30.02,ESE,118,8.0,9.9,76,0.00,,,0.00,TxWx,2013-04-18 19:15:00,
2013-04-18 15:18:00,79.9,71.0,30.01,SE,141,8.7,9.9,75,0.00,,,0.00,TxWx,2013-04-18 19:18:00,
2013-04-18 15:20:00,80.0,71.0,30.01,SE,141,8.7,9.3,75,0.00,,,0.00,TxWx,2013-04-18 19:20:00,
2013-04-18 15:22:00,79.9,71.0,30.01,SE,141,10.5,11.8,75,0.00,,,0.00,TxWx,2013-04-18 19:22:00,
2013-04-18 15:24:00,80.2,71.0,30.02,ESE,118,10.5,10.5,75,0.00,,,0.00,TxWx,2013-04-18 19:24:00,
2013-04-18 15:25:00,80.2,72.0,30.01,ESE,118,8.7,9.3,76,0.00,,,0.00,TxWx,2013-04-18 19:25:00,
2013-04-18 15:28:00,79.8,71.0,30.01,SE,141,11.8,11.8,75,0.00,,,0.00,TxWx,2013-04-18 19:28:00,
2013-04-18 15:29:00,79.8,71.0,30.01,SE,141,12.4,12.4,75,0.00,,,0.00,TxWx,2013-04-18 19:29:00,
2013-04-18 15:31:00,80.2,71.0,30.01,East,96,9.9,9.9,75,0.00,,,0.00,TxWx,2013-04-18 19:31:00,
2013-04-18 15:34:00,80.0,71.0,30.01,ESE,118,9.9,9.9,75,0.00,,,0.00,TxWx,2013-04-18 19:34:00,
2013-04-18 15:35:00,80.0,71.0,30.01,SE,141,11.1,11.1,75,0.00,,,0.00,TxWx,2013-04-18 19:35:00,
2013-04-18 15:36:00,79.9,71.0,30.01,ESE,118,10.5,11.1,75,0.00,,,0.00,TxWx,2013-04-18 19:36:00,
2013-04-18 15:40:00,80.2,71.0,30.01,SE,141,9.9,9.9,75,0.00,,,0.00,TxWx,2013-04-18 19:40:00,
2013-04-18 15:41:00,80.0,71.0,30.01,SE,141,9.9,11.1,75,0.00,,,0.00,TxWx,2013-04-18 19:41:00,
2013-04-18 15:42:00,80.0,71.0,30.00,ESE,118,11.1,11.8,74,0.00,,,0.00,TxWx,2013-04-18 19:42:00,
2013-04-18 15:45:00,80.4,72.0,30.00,ESE,118,9.3,10.5,76,0.00,,,0.00,TxWx,2013-04-18 19:45:00,
2013-04-18 15:46:00,80.0,72.0,30.00,SE,141,10.5,13.0,76,0.00,,,0.00,TxWx,2013-04-18 19:46:00,
2013-04-18 15:47:00,80.2,72.0,30.00,ESE,118,8.7,9.3,76,0.00,,,0.00,TxWx,2013-04-18 19:47:00,
2013-04-18 15:48:00,80.3,72.0,30.00,ESE,118,9.3,9.9,76,0.00,,,0.00,TxWx,2013-04-18 19:48:00,
2013-04-18 15:51:00,79.9,72.0,30.00,ESE,118,9.9,9.9,76,0.00,,,0.00,TxWx,2013-04-18 19:51:00,
2013-04-18 15:52:00,80.0,72.0,30.00,ESE,118,11.1,11.1,76,0.00,,,0.00,TxWx,2013-04-18 19:52:00,
2013-04-18 15:53:00,79.8,72.0,30.00,SE,141,10.5,11.1,76,0.00,,,0.00,TxWx,2013-04-18 19:53:00,
2013-04-18 15:54:00,79.8,72.0,30.01,ESE,118,10.5,11.8,76,0.00,,,0.00,TxWx,2013-04-18 19:54:00,
2013-04-18 15:56:00,79.8,72.0,30.00,ESE,118,12.4,13.0,77,0.00,,,0.00,TxWx,2013-04-18 19:56:00,
2013-04-18 15:57:00,79.7,72.0,30.00,SE,141,13.0,13.6,76,0.00,,,0.00,TxWx,2013-04-18 19:57:00,
2013-04-18 15:59:00,79.6,72.0,30.00,ESE,118,10.5,11.8,76,0.00,,,0.00,TxWx,2013-04-18 19:59:00,
2013-04-18 16:01:00,80.0,72.0,30.00,SE,141,11.1,11.8,77,0.00,,,0.00,TxWx,2013-04-18 20:01:00,
2013-04-18 16:02:00,79.5,72.0,30.00,SE,141,13.6,13.6,76,0.00,,,0.00,TxWx,2013-04-18 20:02:00,
2013-04-18 16:05:00,79.7,72.0,30.00,SE,141,11.1,11.1,76,0.00,,,0.00,TxWx,2013-04-18 20:05:00,
2013-04-18 16:06:00,80.0,72.0,30.00,ESE,118,9.9,11.8,77,0.00,,,0.00,TxWx,2013-04-18 20:06:00,
2013-04-18 16:07:00,79.7,72.0,30.00,SE,141,11.8,12.4,76,0.00,,,0.00,TxWx,2013-04-18 20:07:00,
2013-04-18 16:08:00,79.8,72.0,30.00,SE,141,12.4,12.4,76,0.00,,,0.00,TxWx,2013-04-18 20:08:00,
2013-04-18 16:10:00,79.9,72.0,30.00,SE,141,11.1,11.8,76,0.00,,,0.00,TxWx,2013-04-18 20:10:00,
2013-04-18 16:12:00,80.2,72.0,30.00,ESE,118,9.3,10.5,76,0.00,,,0.00,TxWx,2013-04-18 20:12:00,
2013-04-18 16:15:00,80.2,71.0,30.00,ESE,118,13.6,13.6,75,0.00,,,0.00,TxWx,2013-04-18 20:15:00,
2013-04-18 16:16:00,80.1,71.0,30.00,SE,141,12.4,12.4,75,0.00,,,0.00,TxWx,2013-04-18 20:16:00,
2013-04-18 16:18:00,80.0,71.0,30.00,SE,141,10.5,10.5,75,0.00,,,0.00,TxWx,2013-04-18 20:18:00,
2013-04-18 16:19:00,79.9,71.0,30.00,ESE,118,13.0,13.0,75,0.00,,,0.00,TxWx,2013-04-18 20:19:00,
2013-04-18 16:21:00,79.9,71.0,30.00,SE,141,10.5,10.5,75,0.00,,,0.00,TxWx,2013-04-18 20:21:00,
2013-04-18 16:23:00,79.8,71.0,30.00,ESE,118,10.5,10.5,75,0.00,,,0.00,TxWx,2013-04-18 20:23:00,
2013-04-18 16:24:00,79.7,71.0,30.00,SE,141,11.1,13.0,75,0.00,,,0.00,TxWx,2013-04-18 20:24:00,
2013-04-18 16:26:00,79.9,71.0,30.00,ESE,118,10.5,13.6,75,0.00,,,0.00,TxWx,2013-04-18 20:26:00,
2013-04-18 16:28:00,79.8,71.0,30.00,SE,141,11.8,12.4,74,0.00,,,0.00,TxWx,2013-04-18 20:28:00,
2013-04-18 16:29:00,80.1,71.0,30.00,SE,141,11.1,11.1,75,0.00,,,0.00,TxWx,2013-04-18 20:29:00,
2013-04-18 16:30:00,80.4,72.0,30.00,SE,141,8.7,9.3,76,0.00,,,0.00,TxWx,2013-04-18 20:30:00,
2013-04-18 16:31:00,80.0,72.0,30.00,SE,141,8.7,10.5,76,0.00,,,0.00,TxWx,2013-04-18 20:31:00,
2013-04-18 16:34:00,80.1,72.0,30.01,SE,141,7.4,8.7,76,0.00,,,0.00,TxWx,2013-04-18 20:34:00,
2013-04-18 16:35:00,80.1,72.0,30.01,SE,141,9.9,9.9,76,0.00,,,0.00,TxWx,2013-04-18 20:35:00,
2013-04-18 16:36:00,79.9,72.0,30.01,SE,141,11.8,11.8,76,0.00,,,0.00,TxWx,2013-04-18 20:36:00,
2013-04-18 16:37:00,80.0,71.0,30.01,ESE,118,8.7,9.3,75,0.00,,,0.00,TxWx,2013-04-18 20:37:00,
2013-04-18 16:40:00,79.9,71.0,30.01,SE,141,13.6,13.6,75,0.00,,,0.00,TxWx,2013-04-18 20:40:00,
2013-04-18 16:41:00,79.8,71.0,30.00,ESE,118,11.1,13.0,75,0.00,,,0.00,TxWx,2013-04-18 20:41:00,
2013-04-18 16:42:00,80.2,71.0,30.00,ESE,118,10.5,10.5,75,0.00,,,0.00,TxWx,2013-04-18 20:42:00,
2013-04-18 16:43:00,79.8,71.0,30.00,ESE,118,10.5,11.1,75,0.00,,,0.00,TxWx,2013-04-18 20:43:00,
2013-04-18 16:44:00,79.9,71.0,30.00,ESE,118,11.8,11.8,75,0.00,,,0.00,TxWx,2013-04-18 20:44:00,
2013-04-18 16:46:00,79.9,71.0,30.00,SE,141,11.8,12.4,75,0.00,,,0.00,TxWx,2013-04-18 20:46:00,
2013-04-18 16:48:00,80.2,71.0,30.00,SE,141,9.9,10.5,75,0.00,,,0.00,TxWx,2013-04-18 20:48:00,
2013-04-18 16:49:00,79.8,71.0,30.00,ESE,118,11.1,12.4,75,0.00,,,0.00,TxWx,2013-04-18 20:49:00,
2013-04-18 16:50:00,80.0,71.0,30.00,ESE,118,10.5,10.5,75,0.00,,,0.00,TxWx,2013-04-18 20:50:00,
2013-04-18 16:52:00,79.8,71.0,30.00,ESE,118,8.7,11.8,75,0.00,,,0.00,TxWx,2013-04-18 20:52:00,
2013-04-18 16:54:00,79.7,71.0,30.00,ESE,118,13.6,13.6,74,0.00,,,0.00,TxWx,2013-04-18 20:54:00,
2013-04-18 16:56:00,80.2,71.0,30.00,SE,141,6.8,8.7,75,0.00,,,0.00,TxWx,2013-04-18 20:56:00,
2013-04-18 16:57:00,79.8,71.0,30.00,SE,141,11.1,12.4,75,0.00,,,0.00,TxWx,2013-04-18 20:57:00,
2013-04-18 16:58:00,79.8,71.0,30.00,ESE,118,11.8,11.8,75,0.00,,,0.00,TxWx,2013-04-18 20:58:00,
2013-04-18 17:00:00,80.0,71.0,30.00,SE,141,11.1,11.1,75,0.00,,,0.00,TxWx,2013-04-18 21:00:00,
2013-04-18 17:02:00,80.2,71.0,30.00,ESE,118,9.3,9.9,75,0.00,,,0.00,TxWx,2013-04-18 21:02:00,
2013-04-18 17:03:00,79.6,71.0,30.00,ESE,118,13.6,13.6,74,0.00,,,0.00,TxWx,2013-04-18 21:03:00,
2013-04-18 17:04:00,79.9,71.0,30.00,ESE,118,12.4,12.4,74,0.00,,,0.00,TxWx,2013-04-18 21:04:00,
2013-04-18 17:06:00,80.0,71.0,30.00,ESE,118,10.5,11.1,75,0.00,,,0.00,TxWx,2013-04-18 21:06:00,
2013-04-18 17:07:00,80.0,71.0,30.00,ESE,118,11.1,11.1,75,0.00,,,0.00,TxWx,2013-04-18 21:07:00,
2013-04-18 17:09:00,80.1,71.0,30.00,ESE,118,9.9,10.5,74,0.00,,,0.00,TxWx,2013-04-18 21:09:00,
2013-04-18 17:10:00,80.1,71.0,30.00,ESE,118,11.8,11.8,74,0.00,,,0.00,TxWx,2013-04-18 21:10:00,
2013-04-18 17:12:00,79.9,71.0,30.00,ESE,118,11.1,13.0,74,0.00,,,0.00,TxWx,2013-04-18 21:12:00,
2013-04-18 17:14:00,79.8,71.0,30.00,ESE,118,9.9,10.5,74,0.00,,,0.00,TxWx,2013-04-18 21:14:00,
2013-04-18 17:16:00,80.2,71.0,30.00,ESE,118,9.9,10.5,73,0.00,,,0.00,TxWx,2013-04-18 21:16:00,
2013-04-18 17:18:00,80.2,71.0,30.00,SE,141,9.9,9.9,73,0.00,,,0.00,TxWx,2013-04-18 21:18:00,
2013-04-18 17:19:00,80.3,71.0,30.00,ESE,118,8.0,8.0,74,0.00,,,0.00,TxWx,2013-04-18 21:19:00,
2013-04-18 17:20:00,80.1,71.0,30.00,SE,141,11.8,11.8,73,0.00,,,0.00,TxWx,2013-04-18 21:20:00,
2013-04-18 17:21:00,79.8,70.0,30.00,East,96,8.7,9.3,72,0.00,,,0.00,TxWx,2013-04-18 21:21:00,
2013-04-18 17:24:00,80.0,70.0,30.00,ESE,118,9.9,9.9,72,0.00,,,0.00,TxWx,2013-04-18 21:24:00,
2013-04-18 17:26:00,80.2,70.0,30.00,SE,141,9.9,11.8,73,0.00,,,0.00,TxWx,2013-04-18 21:26:00,
2013-04-18 17:27:00,80.2,71.0,30.00,SE,141,10.5,11.8,73,0.00,,,0.00,TxWx,2013-04-18 21:27:00,
2013-04-18 17:30:00,80.1,70.0,30.00,SE,141,11.1,11.8,73,0.00,,,0.00,TxWx,2013-04-18 21:30:00,
2013-04-18 17:32:00,80.0,70.0,30.00,SE,141,11.1,11.1,73,0.00,,,0.00,TxWx,2013-04-18 21:32:00,
2013-04-18 17:33:00,79.7,70.0,30.00,SE,141,11.1,11.1,73,0.00,,,0.00,TxWx,2013-04-18 21:33:00,
2013-04-18 17:35:00,79.8,70.0,30.00,ESE,118,11.1,11.1,73,0.00,,,0.00,TxWx,2013-04-18 21:35:00,
2013-04-18 17:36:00,80.1,71.0,30.00,SE,141,10.5,10.5,74,0.00,,,0.00,TxWx,2013-04-18 21:36:00,
2013-04-18 17:38:00,79.7,71.0,30.00,ESE,118,11.8,13.6,74,0.00,,,0.00,TxWx,2013-04-18 21:38:00,
2013-04-18 17:40:00,79.9,71.0,30.00,SE,141,9.9,9.9,74,0.00,,,0.00,TxWx,2013-04-18 21:40:00,
2013-04-18 17:41:00,80.2,71.0,30.00,ESE,118,8.7,8.7,74,0.00,,,0.00,TxWx,2013-04-18 21:41:00,
2013-04-18 17:43:00,79.8,71.0,30.00,ESE,118,11.1,11.1,74,0.00,,,0.00,TxWx,2013-04-18 21:43:00,
2013-04-18 17:44:00,79.6,71.0,30.00,ESE,118,11.8,11.8,73,0.00,,,0.00,TxWx,2013-04-18 21:44:00,
2013-04-18 17:45:00,79.7,71.0,30.00,SE,141,11.1,13.6,73,0.00,,,0.00,TxWx,2013-04-18 21:45:00,
2013-04-18 17:47:00,79.7,70.0,30.00,SE,141,13.0,13.6,73,0.00,,,0.00,TxWx,2013-04-18 21:47:00,
2013-04-18 17:49:00,80.0,71.0,30.00,ESE,118,8.7,9.3,73,0.00,,,0.00,TxWx,2013-04-18 21:49:00,
2013-04-18 17:50:00,79.9,71.0,30.00,SE,141,9.3,11.8,73,0.00,,,0.00,TxWx,2013-04-18 21:50:00,
2013-04-18 17:51:00,79.8,71.0,30.00,SE,141,9.3,9.3,74,0.00,,,0.00,TxWx,2013-04-18 21:51:00,
2013-04-18 17:52:00,80.0,71.0,30.00,SE,141,8.0,9.3,74,0.00,,,0.00,TxWx,2013-04-18 21:52:00,
2013-04-18 17:54:00,80.0,71.0,30.00,SE,141,8.7,11.1,74,0.00,,,0.00,TxWx,2013-04-18 21:54:00,
2013-04-18 17:56:00,79.8,71.0,30.00,ESE,118,9.9,10.5,74,0.00,,,0.00,TxWx,2013-04-18 21:56:00,
2013-04-18 17:57:00,79.8,71.0,30.00,ESE,118,9.9,11.8,75,0.00,,,0.00,TxWx,2013-04-18 21:57:00,
2013-04-18 18:00:00,79.8,71.0,30.00,ESE,118,9.9,13.0,75,0.00,,,0.00,TxWx,2013-04-18 22:00:00,
2013-04-18 18:01:00,79.6,71.0,29.99,SE,141,11.1,11.1,75,0.00,,,0.00,TxWx,2013-04-18 22:01:00,
2013-04-18 18:02:00,79.7,71.0,30.00,SE,141,9.9,11.8,75,0.00,,,0.00,TxWx,2013-04-18 22:02:00,
2013-04-18 18:06:00,79.4,70.0,29.99,SSE,163,12.4,12.4,75,0.00,,,0.00,TxWx,2013-04-18 22:06:00,
2013-04-18 18:07:00,79.5,70.0,29.99,SE,141,12.4,12.4,74,0.00,,,0.00,TxWx,2013-04-18 22:07:00,
2013-04-18 18:09:00,79.4,70.0,29.99,SE,141,11.8,11.8,74,0.00,,,0.00,TxWx,2013-04-18 22:09:00,
2013-04-18 18:12:00,79.5,71.0,29.99,East,96,8.7,8.7,75,0.00,,,0.00,TxWx,2013-04-18 22:12:00,
2013-04-18 18:13:00,79.7,71.0,30.00,ESE,118,12.4,12.4,75,0.00,,,0.00,TxWx,2013-04-18 22:13:00,
2013-04-18 18:15:00,79.5,71.0,29.99,SE,141,9.3,9.3,74,0.00,,,0.00,TxWx,2013-04-18 22:15:00,
2013-04-18 18:16:00,79.5,70.0,30.00,SE,141,14.2,14.2,75,0.00,,,0.00,TxWx,2013-04-18 22:16:00,
2013-04-18 18:18:00,80.0,71.0,29.99,SE,141,10.5,10.5,75,0.00,,,0.00,TxWx,2013-04-18 22:18:00,
2013-04-18 18:19:00,79.5,70.0,29.99,SE,141,10.5,11.8,73,0.00,,,0.00,TxWx,2013-04-18 22:19:00,
2013-04-18 18:20:00,79.7,71.0,29.99,SE,141,9.9,11.1,74,0.00,,,0.00,TxWx,2013-04-18 22:20:00,
2013-04-18 18:22:00,79.7,71.0,29.99,SE,141,9.3,9.3,74,0.00,,,0.00,TxWx,2013-04-18 22:22:00,
2013-04-18 18:23:00,79.7,71.0,29.99,SE,141,11.1,11.8,74,0.00,,,0.00,TxWx,2013-04-18 22:23:00,
2013-04-18 18:25:00,79.6,71.0,29.99,ESE,118,10.5,10.5,74,0.00,,,0.00,TxWx,2013-04-18 22:25:00,
2013-04-18 18:28:00,79.8,71.0,29.99,SE,141,9.3,9.3,74,0.00,,,0.00,TxWx,2013-04-18 22:28:00,
2013-04-18 18:29:00,79.9,71.0,30.00,SE,141,9.9,9.9,74,0.00,,,0.00,TxWx,2013-04-18 22:29:00,
2013-04-18 18:32:00,79.6,71.0,29.99,SE,141,12.4,12.4,74,0.00,,,0.00,TxWx,2013-04-18 22:32:00,
2013-04-18 18:35:00,79.6,71.0,30.00,SE,141,9.3,9.9,74,0.00,,,0.00,TxWx,2013-04-18 22:35:00,
2013-04-18 18:36:00,79.8,71.0,30.00,SE,141,9.9,10.5,74,0.00,,,0.00,TxWx,2013-04-18 22:36:00,
2013-04-18 18:37:00,79.4,70.0,30.00,SE,141,11.1,11.8,74,0.00,,,0.00,TxWx,2013-04-18 22:37:00,
2013-04-18 18:40:00,79.4,70.0,30.00,ESE,118,12.4,13.0,74,0.00,,,0.00,TxWx,2013-04-18 22:40:00,
2013-04-18 18:42:00,79.5,70.0,30.00,SE,141,11.1,11.8,74,0.00,,,0.00,TxWx,2013-04-18 22:42:00,
2013-04-18 18:43:00,79.5,71.0,30.00,SE,141,11.8,11.8,74,0.00,,,0.00,TxWx,2013-04-18 22:43:00,
2013-04-18 18:46:00,79.5,70.0,29.99,ESE,118,10.5,10.5,74,0.00,,,0.00,TxWx,2013-04-18 22:46:00,
2013-04-18 18:48:00,79.5,71.0,29.99,SE,141,10.5,12.4,74,0.00,,,0.00,TxWx,2013-04-18 22:48:00,
2013-04-18 18:51:00,79.5,70.0,29.99,SE,141,12.4,12.4,75,0.00,,,0.00,TxWx,2013-04-18 22:51:00,
2013-04-18 18:53:00,79.3,70.0,29.99,SE,141,12.4,12.4,75,0.00,,,0.00,TxWx,2013-04-18 22:53:00,
2013-04-18 18:54:00,79.1,70.0,30.00,SE,141,13.0,13.0,75,0.00,,,0.00,TxWx,2013-04-18 22:54:00,
2013-04-18 18:57:00,79.2,70.0,30.00,ESE,118,12.4,12.4,75,0.00,,,0.00,TxWx,2013-04-18 22:57:00,
2013-04-18 18:58:00,79.3,70.0,30.00,SE,141,13.6,13.6,75,0.00,,,0.00,TxWx,2013-04-18 22:58:00,
2013-04-18 18:59:00,79.3,70.0,30.00,ESE,118,10.5,10.5,75,0.00,,,0.00,TxWx,2013-04-18 22:59:00,
2013-04-18 19:01:00,79.4,71.0,30.00,ESE,118,13.0,13.0,77,0.00,,,0.00,TxWx,2013-04-18 23:01:00,
2013-04-18 19:03:00,79.3,71.0,30.00,SE,141,9.9,12.4,76,0.00,,,0.00,TxWx,2013-04-18 23:03:00,
2013-04-18 19:04:00,79.1,71.0,30.00,ESE,118,10.5,10.5,76,0.00,,,0.00,TxWx,2013-04-18 23:04:00,
2013-04-18 19:06:00,79.1,71.0,30.00,ESE,118,10.5,10.5,77,0.00,,,0.00,TxWx,2013-04-18 23:06:00,
2013-04-18 19:07:00,79.3,71.0,30.00,ESE,118,10.5,10.5,77,0.00,,,0.00,TxWx,2013-04-18 23:07:00,
2013-04-18 19:10:00,79.2,71.0,30.00,ESE,118,10.5,10.5,78,0.00,,,0.00,TxWx,2013-04-18 23:10:00,
2013-04-18 19:13:00,78.9,71.0,30.00,SE,141,11.1,14.2,77,0.00,,,0.00,TxWx,2013-04-18 23:13:00,
2013-04-18 19:14:00,79.0,71.0,30.00,SE,141,11.8,11.8,77,0.00,,,0.00,TxWx,2013-04-18 23:14:00,
2013-04-18 19:15:00,79.1,71.0,30.00,SE,141,11.1,11.1,77,0.00,,,0.00,TxWx,2013-04-18 23:15:00,
2013-04-18 19:17:00,79.1,71.0,30.00,ESE,118,14.2,14.2,78,0.00,,,0.00,TxWx,2013-04-18 23:17:00,
2013-04-18 19:19:00,79.0,71.0,30.00,SE,141,11.1,13.6,77,0.00,,,0.00,TxWx,2013-04-18 23:19:00,
2013-04-18 19:20:00,79.0,71.0,30.00,SE,141,12.4,12.4,77,0.00,,,0.00,TxWx,2013-04-18 23:20:00,
2013-04-18 19:21:00,79.2,71.0,30.00,SE,141,11.8,11.8,77,0.00,,,0.00,TxWx,2013-04-18 23:21:00,
2013-04-18 19:23:00,79.3,71.0,30.00,ESE,118,9.3,9.3,78,0.00,,,0.00,TxWx,2013-04-18 23:23:00,
2013-04-18 19:25:00,79.2,71.0,30.00,ESE,118,11.8,11.8,78,0.00,,,0.00,TxWx,2013-04-18 23:25:00,
2013-04-18 19:26:00,79.0,71.0,30.00,SE,141,11.1,11.1,77,0.00,,,0.00,TxWx,2013-04-18 23:26:00,
2013-04-18 19:28:00,79.0,71.0,30.00,SE,141,10.5,10.5,77,0.00,,,0.00,TxWx,2013-04-18 23:28:00,
2013-04-18 19:31:00,79.2,71.0,30.00,ESE,118,11.8,11.8,77,0.00,,,0.00,TxWx,2013-04-18 23:31:00,
2013-04-18 19:32:00,79.0,71.0,30.00,ESE,118,11.8,13.6,77,0.00,,,0.00,TxWx,2013-04-18 23:32:00,
2013-04-18 19:34:00,79.1,71.0,30.00,SE,141,14.2,14.2,78,0.00,,,0.00,TxWx,2013-04-18 23:34:00,
2013-04-18 19:35:00,79.0,71.0,30.00,SE,141,11.1,13.0,77,0.00,,,0.00,TxWx,2013-04-18 23:35:00,
2013-04-18 19:37:00,79.3,71.0,30.00,SE,141,10.5,10.5,78,0.00,,,0.00,TxWx,2013-04-18 23:37:00,
2013-04-18 19:38:00,79.1,71.0,30.00,ESE,118,11.8,11.8,78,0.00,,,0.00,TxWx,2013-04-18 23:38:00,
2013-04-18 19:40:00,79.0,71.0,30.00,SE,141,13.0,13.0,77,0.00,,,0.00,TxWx,2013-04-18 23:40:00,
2013-04-18 19:41:00,79.0,71.0,30.00,SE,141,11.8,13.0,77,0.00,,,0.00,TxWx,2013-04-18 23:41:00,
2013-04-18 19:44:00,79.0,71.0,30.00,ESE,118,11.8,12.4,77,0.00,,,0.00,TxWx,2013-04-18 23:44:00,
2013-04-18 19:45:00,78.9,71.0,30.00,SE,141,12.4,13.6,77,0.00,,,0.00,TxWx,2013-04-18 23:45:00,
2013-04-18 19:46:00,79.1,71.0,30.00,SE,141,13.0,13.6,78,0.00,,,0.00,TxWx,2013-04-18 23:46:00,
2013-04-18 19:47:00,79.0,71.0,30.00,SE,141,13.6,13.6,78,0.00,,,0.00,TxWx,2013-04-18 23:47:00,
2013-04-18 19:49:00,78.8,71.0,30.00,SE,141,15.5,15.5,77,0.00,,,0.00,TxWx,2013-04-18 23:49:00,
2013-04-18 19:51:00,79.3,72.0,30.00,ESE,118,11.8,11.8,78,0.00,,,0.00,TxWx,2013-04-18 23:51:00,
2013-04-18 19:52:00,78.9,71.0,30.00,SE,141,14.2,14.2,78,0.00,,,0.00,TxWx,2013-04-18 23:52:00,
2013-04-18 19:55:00,79.0,71.0,30.00,SE,141,13.0,13.0,78,0.00,,,0.00,TxWx,2013-04-18 23:55:00,
2013-04-18 19:57:00,79.2,72.0,30.00,ESE,118,12.4,12.4,79,0.00,,,0.00,TxWx,2013-04-18 23:57:00,
2013-04-18 19:58:00,78.8,71.0,30.00,SE,141,11.1,11.8,78,0.00,,,0.00,TxWx,2013-04-18 23:58:00,
2013-04-18 19:59:00,78.9,71.0,30.00,SE,141,14.2,14.2,78,0.00,,,0.00,TxWx,2013-04-18 23:59:00,
2013-04-18 20:00:00,78.9,72.0,30.00,East,96,11.8,11.8,78,0.00,,,0.00,TxWx,2013-04-19 00:00:00,
2013-04-18 20:02:00,79.0,72.0,30.00,SE,141,12.4,13.0,78,0.00,,,0.00,TxWx,2013-04-19 00:02:00,
2013-04-18 20:04:00,78.9,71.0,30.00,ESE,118,11.1,11.8,78,0.00,,,0.00,TxWx,2013-04-19 00:04:00,
2013-04-18 20:06:00,78.9,71.0,30.00,ESE,118,12.4,13.0,78,0.00,,,0.00,TxWx,2013-04-19 00:06:00,
2013-04-18 20:07:00,79.0,72.0,30.00,SE,141,11.8,13.6,78,0.00,,,0.00,TxWx,2013-04-19 00:07:00,
2013-04-18 20:10:00,79.0,72.0,30.00,ESE,118,13.0,14.9,78,0.00,,,0.00,TxWx,2013-04-19 00:10:00,
2013-04-18 20:12:00,78.7,72.0,30.00,ESE,118,13.0,13.0,78,0.00,,,0.00,TxWx,2013-04-19 00:12:00,
2013-04-18 20:13:00,78.9,72.0,30.00,ESE,118,13.0,16.1,78,0.00,,,0.00,TxWx,2013-04-19 00:13:00,
2013-04-18 20:14:00,78.9,72.0,30.00,East,96,13.6,13.6,78,0.00,,,0.00,TxWx,2013-04-19 00:14:00,
2013-04-18 20:15:00,78.8,71.0,30.00,ESE,118,13.6,14.2,78,0.00,,,0.00,TxWx,2013-04-19 00:15:00,
2013-04-18 20:18:00,78.8,72.0,30.01,East,96,13.6,16.1,78,0.00,,,0.00,TxWx,2013-04-19 00:18:00,
2013-04-18 20:19:00,78.9,72.0,30.01,SE,141,14.9,14.9,78,0.00,,,0.00,TxWx,2013-04-19 00:19:00,
2013-04-18 20:20:00,79.1,72.0,30.01,ESE,118,11.8,12.4,78,0.00,,,0.00,TxWx,2013-04-19 00:20:00,
2013-04-18 20:23:00,78.9,72.0,30.01,SE,141,12.4,14.2,79,0.00,,,0.00,TxWx,2013-04-19 00:23:00,
2013-04-18 20:24:00,78.7,71.0,30.01,ESE,118,11.1,13.6,78,0.00,,,0.00,TxWx,2013-04-19 00:24:00,
2013-04-18 20:25:00,78.8,71.0,30.01,ESE,118,13.6,13.6,78,0.00,,,0.00,TxWx,2013-04-19 00:25:00,
2013-04-18 20:29:00,78.8,71.0,30.01,SE,141,14.9,14.9,78,0.00,,,0.00,TxWx,2013-04-19 00:29:00,
2013-04-18 20:30:00,79.1,72.0,30.01,ESE,118,13.6,14.2,78,0.00,,,0.00,TxWx,2013-04-19 00:30:00,
2013-04-18 20:31:00,79.3,72.0,30.01,SE,141,11.1,11.1,78,0.00,,,0.00,TxWx,2013-04-19 00:31:00,
2013-04-18 20:32:00,78.7,71.0,30.01,ESE,118,12.4,13.6,78,0.00,,,0.00,TxWx,2013-04-19 00:32:00,
2013-04-18 20:33:00,78.8,71.0,30.01,ESE,118,14.2,15.5,77,0.00,,,0.00,TxWx,2013-04-19 00:33:00,
2013-04-18 20:35:00,79.1,71.0,30.01,ESE,118,12.4,13.6,78,0.00,,,0.00,TxWx,2013-04-19 00:35:00,
2013-04-18 20:36:00,79.1,71.0,30.01,SE,141,9.9,11.8,78,0.00,,,0.00,TxWx,2013-04-19 00:36:00,
2013-04-18 20:37:00,79.1,71.0,30.01,SE,141,14.2,14.2,78,0.00,,,0.00,TxWx,2013-04-19 00:37:00,
2013-04-18 20:40:00,78.9,71.0,30.01,ESE,118,17.3,17.3,78,0.00,,,0.00,TxWx,2013-04-19 00:40:00,
2013-04-18 20:42:00,79.0,71.0,30.01,ESE,118,14.2,14.2,78,0.00,,,0.00,TxWx,2013-04-19 00:42:00,
2013-04-18 20:43:00,78.9,71.0,30.01,ESE,118,13.6,14.2,78,0.00,,,0.00,TxWx,2013-04-19 00:43:00,
2013-04-18 20:44:00,78.9,71.0,30.01,SE,141,14.9,14.9,77,0.00,,,0.00,TxWx,2013-04-19 00:44:00,
2013-04-18 20:47:00,79.0,71.0,30.01,SE,141,14.9,15.5,78,0.00,,,0.00,TxWx,2013-04-19 00:47:00,
2013-04-18 20:48:00,79.0,71.0,30.01,SE,141,16.1,16.1,77,0.00,,,0.00,TxWx,2013-04-19 00:48:00,
2013-04-18 20:49:00,79.0,71.0,30.01,SE,141,10.5,12.4,77,0.00,,,0.00,TxWx,2013-04-19 00:49:00,
2013-04-18 20:50:00,78.8,71.0,30.01,SE,141,15.5,15.5,77,0.00,,,0.00,TxWx,2013-04-19 00:50:00,
2013-04-18 20:52:00,79.1,71.0,30.01,SE,141,15.5,15.5,77,0.00,,,0.00,TxWx,2013-04-19 00:52:00,
2013-04-18 20:54:00,78.9,71.0,30.01,SE,141,14.9,16.7,77,0.00,,,0.00,TxWx,2013-04-19 00:54:00,
2013-04-18 20:55:00,79.0,71.0,30.01,ESE,118,14.9,15.5,77,0.00,,,0.00,TxWx,2013-04-19 00:55:00,
2013-04-18 20:56:00,78.9,71.0,30.01,SE,141,14.9,14.9,77,0.00,,,0.00,TxWx,2013-04-19 00:56:00,
2013-04-18 20:57:00,79.0,71.0,30.01,SE,141,13.6,16.1,77,0.00,,,0.00,TxWx,2013-04-19 00:57:00,
2013-04-18 21:00:00,79.2,71.0,30.01,ESE,118,13.0,16.7,78,0.00,,,0.00,TxWx,2013-04-19 01:00:00,
2013-04-18 21:02:00,79.1,71.0,30.02,SE,141,14.9,16.1,78,0.00,,,0.00,TxWx,2013-04-19 01:02:00,
2013-04-18 21:03:00,78.9,71.0,30.02,SE,141,14.9,14.9,77,0.00,,,0.00,TxWx,2013-04-19 01:03:00,
2013-04-18 21:07:00,79.0,71.0,30.02,ESE,118,13.6,13.6,77,0.00,,,0.00,TxWx,2013-04-19 01:07:00,
2013-04-18 21:08:00,79.2,71.0,30.02,SE,141,16.7,16.7,77,0.00,,,0.00,TxWx,2013-04-19 01:08:00,
2013-04-18 21:09:00,79.3,71.0,30.02,SE,141,9.9,10.5,77,0.00,,,0.00,TxWx,2013-04-19 01:09:00,
2013-04-18 21:11:00,79.3,72.0,30.02,ESE,118,16.1,16.1,78,0.00,,,0.00,TxWx,2013-04-19 01:11:00,
2013-04-18 21:13:00,79.0,72.0,30.02,ESE,118,13.0,14.2,78,0.00,,,0.00,TxWx,2013-04-19 01:13:00,
2013-04-18 21:14:00,79.0,72.0,30.02,ESE,118,14.9,14.9,78,0.00,,,0.00,TxWx,2013-04-19 01:14:00,
2013-04-18 21:16:00,78.9,72.0,30.02,ESE,118,15.5,17.9,79,0.00,,,0.00,TxWx,2013-04-19 01:16:00,
2013-04-18 21:19:00,79.2,72.0,30.02,ESE,118,11.8,12.4,79,0.00,,,0.00,TxWx,2013-04-19 01:19:00,
2013-04-18 21:21:00,79.1,72.0,30.02,ESE,118,11.1,13.6,80,0.00,,,0.00,TxWx,2013-04-19 01:21:00,
2013-04-18 21:22:00,78.9,72.0,30.02,SE,141,14.2,14.9,79,0.00,,,0.00,TxWx,2013-04-19 01:22:00,
2013-04-18 21:25:00,78.9,72.0,30.02,SE,141,12.4,15.5,78,0.00,,,0.00,TxWx,2013-04-19 01:25:00,
2013-04-18 21:27:00,79.2,72.0,30.02,ESE,118,12.4,13.0,79,0.00,,,0.00,TxWx,2013-04-19 01:27:00,
2013-04-18 21:28:00,79.2,72.0,30.02,SE,141,13.6,13.6,80,0.00,,,0.00,TxWx,2013-04-19 01:28:00,
2013-04-18 21:31:00,79.1,72.0,30.02,ESE,118,14.9,14.9,80,0.00,,,0.00,TxWx,2013-04-19 01:31:00,
2013-04-18 21:33:00,79.0,72.0,30.02,ESE,118,13.6,13.6,79,0.00,,,0.00,TxWx,2013-04-19 01:33:00,
2013-04-18 21:35:00,78.8,72.0,30.02,SE,141,16.7,21.0,79,0.00,,,0.00,TxWx,2013-04-19 01:35:00,
2013-04-18 21:36:00,79.1,72.0,30.02,ESE,118,13.6,13.6,79,0.00,,,0.00,TxWx,2013-04-19 01:36:00,
2013-04-18 21:37:00,79.0,72.0,30.02,ESE,118,11.8,15.5,79,0.00,,,0.00,TxWx,2013-04-19 01:37:00,
2013-04-18 21:39:00,79.1,72.0,30.02,ESE,118,15.5,17.3,79,0.00,,,0.00,TxWx,2013-04-19 01:39:00,
2013-04-18 21:40:00,79.1,72.0,30.02,SE,141,15.5,15.5,79,0.00,,,0.00,TxWx,2013-04-19 01:40:00,
2013-04-18 21:42:00,78.8,72.0,30.02,SE,141,19.2,19.2,79,0.00,,,0.00,TxWx,2013-04-19 01:42:00,
2013-04-18 21:44:00,79.0,72.0,30.02,ESE,118,14.2,14.9,79,0.00,,,0.00,TxWx,2013-04-19 01:44:00,
2013-04-18 21:45:00,78.9,72.0,30.02,ESE,118,16.7,16.7,79,0.00,,,0.00,TxWx,2013-04-19 01:45:00,
2013-04-18 21:47:00,78.9,72.0,30.02,SE,141,17.3,17.3,78,0.00,,,0.00,TxWx,2013-04-19 01:47:00,
2013-04-18 21:49:00,79.2,71.0,30.02,SE,141,16.1,16.1,77,0.00,,,0.00,TxWx,2013-04-19 01:49:00,
2013-04-18 21:51:00,79.2,72.0,30.02,SE,141,19.2,19.2,78,0.00,,,0.00,TxWx,2013-04-19 01:51:00,
2013-04-18 21:52:00,79.2,72.0,30.02,SE,141,14.2,15.5,78,0.00,,,0.00,TxWx,2013-04-19 01:52:00,
2013-04-18 21:53:00,79.1,72.0,30.02,SE,141,16.7,19.2,78,0.00,,,0.00,TxWx,2013-04-19 01:53:00,
2013-04-18 21:54:00,79.2,72.0,30.02,ESE,118,16.7,17.3,78,0.00,,,0.00,TxWx,2013-04-19 01:54:00,
2013-04-18 21:57:00,79.0,72.0,30.02,SE,141,15.5,15.5,79,0.00,,,0.00,TxWx,2013-04-19 01:57:00,
2013-04-18 21:58:00,79.2,72.0,30.02,SE,141,13.6,18.6,79,0.00,,,0.00,TxWx,2013-04-19 01:58:00,
2013-04-18 22:00:00,78.9,72.0,30.02,ESE,118,17.9,17.9,79,0.00,,,0.00,TxWx,2013-04-19 02:00:00,
2013-04-18 22:03:00,78.9,72.0,30.02,ESE,118,15.5,17.9,78,0.00,,,0.00,TxWx,2013-04-19 02:03:00,
2013-04-18 22:04:00,79.0,72.0,30.02,ESE,118,16.7,16.7,79,0.00,,,0.00,TxWx,2013-04-19 02:04:00,
2013-04-18 22:07:00,79.0,72.0,30.02,ESE,118,16.1,16.1,79,0.00,,,0.00,TxWx,2013-04-19 02:07:00,
2013-04-18 22:10:00,79.0,72.0,30.02,East,96,13.6,16.1,79,0.00,,,0.00,TxWx,2013-04-19 02:10:00,
2013-04-18 22:11:00,79.0,72.0,30.02,SE,141,16.7,16.7,79,0.00,,,0.00,TxWx,2013-04-19 02:11:00,
2013-04-18 22:12:00,79.2,72.0,30.02,SE,141,14.2,14.2,79,0.00,,,0.00,TxWx,2013-04-19 02:12:00,
2013-04-18 22:14:00,79.2,72.0,30.02,ESE,118,13.0,14.2,79,0.00,,,0.00,TxWx,2013-04-19 02:14:00,
2013-04-18 22:16:00,78.7,72.0,30.02,ESE,118,17.3,17.9,79,0.00,,,0.00,TxWx,2013-04-19 02:16:00,
2013-04-18 22:17:00,79.0,72.0,30.02,SE,141,13.6,15.5,78,0.00,,,0.00,TxWx,2013-04-19 02:17:00,
2013-04-18 22:18:00,79.0,72.0,30.02,SE,141,14.9,14.9,79,0.00,,,0.00,TxWx,2013-04-19 02:18:00,
2013-04-18 22:19:00,78.9,72.0,30.02,ESE,118,14.2,16.7,79,0.00,,,0.00,TxWx,2013-04-19 02:19:00,
2013-04-18 22:23:00,78.8,72.0,30.02,ESE,118,18.6,18.6,79,0.00,,,0.00,TxWx,2013-04-19 02:23:00,
2013-04-18 22:25:00,78.9,72.0,30.02,ESE,118,17.9,17.9,79,0.00,,,0.00,TxWx,2013-04-19 02:25:00,
2013-04-18 22:26:00,78.9,72.0,30.02,SE,141,16.7,16.7,79,0.00,,,0.00,TxWx,2013-04-19 02:26:00,
2013-04-18 22:28:00,79.0,72.0,30.03,SE,141,16.1,16.1,80,0.00,,,0.00,TxWx,2013-04-19 02:28:00,
2013-04-18 22:30:00,79.0,72.0,30.03,SE,141,19.8,19.8,80,0.00,,,0.00,TxWx,2013-04-19 02:30:00,
2013-04-18 22:31:00,78.8,72.0,30.02,ESE,118,21.0,21.0,79,0.00,,,0.00,TxWx,2013-04-19 02:31:00,
2013-04-18 22:34:00,79.0,72.0,30.03,SE,141,13.6,14.9,79,0.00,,,0.00,TxWx,2013-04-19 02:34:00,
2013-04-18 22:35:00,78.9,72.0,30.03,SE,141,14.2,14.2,80,0.00,,,0.00,TxWx,2013-04-19 02:35:00,
2013-04-18 22:37:00,78.9,72.0,30.03,ESE,118,13.0,16.7,80,0.00,,,0.00,TxWx,2013-04-19 02:37:00,
2013-04-18 22:38:00,79.2,72.0,30.03,ESE,118,13.6,13.6,81,0.00,,,0.00,TxWx,2013-04-19 02:38:00,
2013-04-18 22:41:00,78.7,72.0,30.03,East,96,16.1,18.6,80,0.00,,,0.00,TxWx,2013-04-19 02:41:00,
2013-04-18 22:43:00,78.8,72.0,30.03,ESE,118,17.3,17.3,79,0.00,,,0.00,TxWx,2013-04-19 02:43:00,
2013-04-18 22:48:00,78.9,72.0,30.03,SE,141,16.7,18.6,80,0.00,,,0.00,TxWx,2013-04-19 02:48:00,
2013-04-18 22:49:00,78.9,72.0,30.03,ESE,118,16.7,16.7,80,0.00,,,0.00,TxWx,2013-04-19 02:49:00,
2013-04-18 22:51:00,79.1,72.0,30.02,ESE,118,13.6,13.6,80,0.00,,,0.00,TxWx,2013-04-19 02:51:00,
2013-04-18 22:54:00,79.0,72.0,30.02,ESE,118,17.3,18.6,79,0.00,,,0.00,TxWx,2013-04-19 02:54:00,
2013-04-18 22:55:00,79.1,72.0,30.03,SE,141,13.0,17.3,80,0.00,,,0.00,TxWx,2013-04-19 02:55:00,
2013-04-18 22:57:00,79.0,72.0,30.02,ESE,118,17.9,17.9,80,0.00,,,0.00,TxWx,2013-04-19 02:57:00,
2013-04-18 23:00:00,78.8,72.0,30.02,ESE,118,14.9,16.1,79,0.00,,,0.00,TxWx,2013-04-19 03:00:00,
2013-04-18 23:01:00,79.0,72.0,30.02,SE,141,14.9,16.1,79,0.00,,,0.00,TxWx,2013-04-19 03:01:00,
2013-04-18 23:02:00,78.8,72.0,30.02,ESE,118,14.2,16.1,79,0.00,,,0.00,TxWx,2013-04-19 03:02:00,
2013-04-18 23:03:00,78.9,72.0,30.02,SE,141,20.4,20.4,79,0.00,,,0.00,TxWx,2013-04-19 03:03:00,
2013-04-18 23:06:00,79.2,72.0,30.02,ESE,118,13.6,13.6,80,0.00,,,0.00,TxWx,2013-04-19 03:06:00,
2013-04-18 23:07:00,78.9,72.0,30.03,ESE,118,14.2,16.7,79,0.00,,,0.00,TxWx,2013-04-19 03:07:00,
2013-04-18 23:08:00,78.8,72.0,30.03,SE,141,16.7,17.3,79,0.00,,,0.00,TxWx,2013-04-19 03:08:00,
2013-04-18 23:09:00,78.9,72.0,30.03,SE,141,15.5,17.3,79,0.00,,,0.00,TxWx,2013-04-19 03:09:00,
2013-04-18 23:12:00,78.9,72.0,30.03,SE,141,16.7,16.7,79,0.00,,,0.00,TxWx,2013-04-19 03:12:00,
2013-04-18 23:13:00,79.0,72.0,30.03,ESE,118,14.9,15.5,80,0.00,,,0.00,TxWx,2013-04-19 03:13:00,
2013-04-18 23:14:00,78.9,72.0,30.03,SE,141,17.3,19.2,80,0.00,,,0.00,TxWx,2013-04-19 03:14:00,
2013-04-18 23:16:00,78.8,72.0,30.03,ESE,118,16.7,16.7,80,0.00,,,0.00,TxWx,2013-04-19 03:16:00,
2013-04-18 23:18:00,78.9,72.0,30.03,SE,141,14.9,15.5,80,0.00,,,0.00,TxWx,2013-04-19 03:18:00,
2013-04-18 23:19:00,79.0,72.0,30.03,SE,141,14.9,16.7,80,0.00,,,0.00,TxWx,2013-04-19 03:19:00,
2013-04-18 23:20:00,79.0,72.0,30.03,ESE,118,13.0,14.2,80,0.00,,,0.00,TxWx,2013-04-19 03:20:00,
2013-04-18 23:21:00,78.8,72.0,30.03,ESE,118,14.9,16.7,80,0.00,,,0.00,TxWx,2013-04-19 03:21:00,
2013-04-18 23:22:00,79.0,72.0,30.03,East,96,13.6,13.6,80,0.00,,,0.00,TxWx,2013-04-19 03:22:00,
2013-04-18 23:24:00,79.0,72.0,30.03,SE,141,13.0,13.6,80,0.00,,,0.00,TxWx,2013-04-19 03:24:00,
2013-04-18 23:26:00,78.8,72.0,30.03,SE,141,13.0,14.9,80,0.00,,,0.00,TxWx,2013-04-19 03:26:00,
2013-04-18 23:28:00,78.7,72.0,30.03,East,96,16.1,16.1,79,0.00,,,0.00,TxWx,2013-04-19 03:28:00,
2013-04-18 23:29:00,78.8,72.0,30.03,ESE,118,13.6,14.9,79,0.00,,,0.00,TxWx,2013-04-19 03:29:00,
2013-04-18 23:31:00,78.8,72.0,30.03,SE,141,17.9,17.9,79,0.00,,,0.00,TxWx,2013-04-19 03:31:00,
2013-04-18 23:32:00,79.0,72.0,30.03,ESE,118,14.2,14.9,79,0.00,,,0.00,TxWx,2013-04-19 03:32:00,
2013-04-18 23:34:00,79.0,72.0,30.03,SE,141,14.2,14.9,79,0.00,,,0.00,TxWx,2013-04-19 03:34:00,
2013-04-18 23:37:00,79.2,72.0,30.03,ESE,118,13.6,13.6,80,0.00,,,0.00,TxWx,2013-04-19 03:37:00,
2013-04-18 23:38:00,79.1,72.0,30.03,ESE,118,16.1,16.1,80,0.00,,,0.00,TxWx,2013-04-19 03:38:00,
2013-04-18 23:39:00,79.1,72.0,30.03,SE,141,14.2,14.2,80,0.00,,,0.00,TxWx,2013-04-19 03:39:00,
2013-04-18 23:43:00,79.1,72.0,30.03,ESE,118,14.9,15.5,80,0.00,,,0.00,TxWx,2013-04-19 03:43:00,
2013-04-18 23:46:00,78.9,72.0,30.03,ESE,118,16.1,16.1,80,0.00,,,0.00,TxWx,2013-04-19 03:46:00,
2013-04-18 23:47:00,78.8,72.0,30.03,ESE,118,16.1,19.2,80,0.00,,,0.00,TxWx,2013-04-19 03:47:00,
2013-04-18 23:49:00,79.0,72.0,30.03,SE,141,12.4,13.0,80,0.00,,,0.00,TxWx,2013-04-19 03:49:00,
2013-04-18 23:51:00,78.8,72.0,30.03,SE,141,18.6,18.6,79,0.00,,,0.00,TxWx,2013-04-19 03:51:00,
2013-04-18 23:52:00,78.7,72.0,30.03,SE,141,20.4,21.0,79,0.00,,,0.00,TxWx,2013-04-19 03:52:00,
2013-04-18 23:53:00,79.0,72.0,30.03,ESE,118,15.5,17.3,79,0.00,,,0.00,TxWx,2013-04-19 03:53:00,
2013-04-18 23:55:00,79.3,72.0,30.03,ESE,118,14.9,14.9,79,0.00,,,0.00,TxWx,2013-04-19 03:55:00,
2013-04-18 23:56:00,79.0,72.0,30.03,ESE,118,14.9,17.9,79,0.00,,,0.00,TxWx,2013-04-19 03:56:00,
2013-04-18 23:57:00,78.9,72.0,30.03,SE,141,15.5,17.9,79,0.00,,,0.00,TxWx,2013-04-19 03:57:00,
2013-04-18 23:58:00,79.0,72.0,30.03,ESE,118,15.5,18.6,79,0.00,,,0.00,TxWx,2013-04-19 03:58:00,
2013-04-18 23:59:00,79.2,72.0,30.03,SE,141,14.9,16.7,80,0.00,,,0.00,TxWx,2013-04-19 03:59:00,